GFSGL_sfc_rhum_000.txt.gz
RH
47 51 56 55 54 55 56 61 62 63 61 60 61 63 62 64 82 84 84 78 72 72 74 71 71 67 69 64 61 55 56 62 65 52 49 47 50 56 44 42 51 66 72
52 52 50 52 50 53 59 57 60 60 62 58 60 60 64 67 79 85 83 79 74 74 68 66 64 50 58 56 53 52 54 55 57 55 54 51 51 49 49 54 42 31 48
48 48 47 50 50 54 54 54 56 58 58 56 49 50 47 50 49 52 53 55 56 54 53 54 53 56 60 58 58 58 55 44 54 56 59 56 55 53 49 50 48 55 43
49 48 51 54 50 50 51 51 54 52 49 46 46 47 50 44 41 51 49 57 58 53 56 54 52 52 57 63 60 66 55 62 58 58 56 54 56 52 54 52 60 56 57
54 51 56 51 47 49 53 51 52 51 44 44 43 48 50 45 50 65 59 60 60 57 57 49 50 55 61 62 47 61 65 67 67 63 62 59 56 59 62 60 65 68 66
43 49 47 48 50 53 54 54 51 48 45 47 50 51 55 36 69 69 70 69 60 59 61 55 52 56 56 64 68 67 70 70 63 64 62 64 61 60 63 70 79 81 81
40 41 50 71 65 64 51 44 42 49 52 56 55 54 57 61 67 69 69 65 62 60 59 58 54 44 61 55 69 72 70 78 78 75 71 72 70 64 63 70 76 81 84
32 38 54 62 60 53 52 51 48 49 54 55 59 57 60 53 71 70 69 73 66 65 64 62 62 63 67 65 67 77 73 69 68 65 76 78 71 65 70 75 81 80 86
29 44 48 64 50 54 54 54 51 51 55 58 58 67 71 69 70 79 82 83 80 75 68 69 69 69 66 66 74 84 83 74 62 68 71 75 76 75 75 79 86 88 94
53 52 48 43 50 53 59 56 51 52 50 64 72 74 72 76 76 72 79 91 87 80 79 73 67 72 89 88 96 96 96 85 76 82 80 72 66 80 88 89 90 89 83
47 54 60 56 48 49 52 46 51 52 62 87 88 83 79 77 79 75 78 87 90 91 83 80 79 95 93 79 74 90 89 80 85 84 80 75 74 73 71 69 80 96 90
54 55 56 51 46 35 47 53 53 56 73 86 87 86 84 86 70 68 78 68 73 95 93 92 92 81 79 79 81 85 86 84 90 91 91 92 93 88 78 73 74 84 92
54 52 51 45 40 44 52 53 56 62 81 83 73 77 73 76 76 71 69 68 75 94 93 91 91 89 85 89 90 80 92 94 97 98 94 93 94 90 82 89 90 93 94
52 53 50 50 56 52 45 49 58 83 88 80 78 79 78 77 79 79 83 86 82 86 88 92 95 90 94 95 91 87 90 96 94 97 96 93 94 96 97 93 98 95 96
57 55 62 74 67 58 49 63 80 74 74 84 86 86 94 92 82 68 74 88 93 93 94 94 92 91 92 93 88 90 92 90 94 94 96 96 94 92 93 94 94 96 98
78 74 74 77 78 66 61 64 72 70 62 61 62 76 90 70 65 63 66 68 78 83 93 94 95 95 93 94 95 94 92 95 92 94 95 94 95 95 93 92 96 98 97
80 80 75 75 77 80 84 83 85 81 74 69 69 70 66 64 66 64 64 66 80 82 93 93 95 90 87 79 82 86 93 94 88 94 96 95 95 94 97 95 95 95 93
78 80 84 84 87 90 83 79 84 86 91 91 89 81 62 61 63 72 69 67 81 82 86 86 86 87 84 82 83 87 91 92 90 91 96 95 97 97 96 97 95 97 96
74 79 91 87 92 91 88 91 88 88 86 84 88 86 78 61 65 82 68 92 90 81 78 77 85 85 85 84 90 89 90 92 92 91 92 96 96 96 96 94 95 95 95
76 83 86 82 91 90 92 90 88 88 86 86 88 93 89 87 94 94 93 93 93 89 88 81 81 86 89 87 89 90 89 89 89 89 90 91 95 96 96 95 94 95 93
83 88 84 90 86 95 92 90 91 91 90 88 91 95 78 90 95 94 94 95 94 93 94 88 88 90 89 87 86 89 88 90 89 90 90 90 92 93 94 95 94 93 92
87 83 91 94 92 93 94 89 86 90 91 92 93 93 86 94 94 93 93 95 94 92 94 93 91 92 91 89 90 91 90 91 90 91 90 91 89 88 88 90 95 94 93
88 91 91 90 91 94 93 92 93 92 92 94 92 94 94 94 93 92 93 94 94 94 93 93 94 94 93 93 93 91 91 93 92 91 91 92 92 88 88 90 88 94 93
92 93 92 89 92 93 94 92 94 89 90 92 93 94 94 94 92 90 92 93 92 92 93 93 93 89 90 92 94 92 90 91 89 90 91 93 92 89 88 91 92 88 93
91 94 94 92 92 92 93 91 93 94 92 92 94 94 94 93 92 92 91 92 92 91 89 90 93 86 86 85 88 88 90 88 90 88 90 89 88 89 89 91 89 88 89
96 90 92 92 93 92 92 94 95 94 94 93 93 94 94 94 92 92 90 90 92 91 88 92 88 81 83 87 86 85 86 87 89 87 89 93 92 92 92 90 88 89 89

GFSGL_sfc_rhum_003.txt.gz
RH
52 55 56 56 61 67 66 66 66 68 69 68 66 68 70 73 78 89 92 92 90 88 88 87 83 76 76 91 90 83 82 82 80 58 62 57 53 54 50 52 64 63 84
56 60 60 62 55 65 63 60 63 62 63 66 64 59 60 61 66 79 91 90 85 77 72 72 69 50 64 64 66 64 61 58 66 67 65 60 55 52 56 52 45 33 63
58 62 62 58 56 56 53 58 57 59 58 55 55 56 56 59 59 62 65 68 69 67 68 67 61 60 61 62 68 75 71 54 66 65 72 65 57 53 50 51 46 52 41
65 68 74 78 64 56 59 58 55 53 50 49 48 51 57 57 60 62 60 68 69 64 68 66 62 60 63 70 65 72 64 70 68 72 70 68 66 56 61 68 68 63 60
48 59 71 72 68 76 75 63 60 55 49 44 46 53 57 56 54 71 66 70 70 70 70 61 59 61 60 66 61 70 72 73 71 70 75 71 71 72 69 77 80 77 69
36 37 42 81 84 83 73 71 65 52 45 47 53 58 61 49 73 69 71 71 66 66 70 63 66 63 68 68 81 78 78 77 73 76 73 76 74 74 75 78 78 81 84
39 41 72 78 80 82 82 72 49 48 51 54 60 63 63 74 70 67 65 69 71 73 74 72 65 51 68 69 70 71 71 71 75 90 86 84 80 78 76 77 81 85 88
49 56 62 75 79 81 81 57 52 50 49 59 66 70 72 63 75 72 71 80 80 78 73 69 71 77 85 72 71 77 81 80 77 70 84 85 86 81 78 73 92 96 93
61 63 63 71 72 69 68 62 60 55 59 65 72 75 77 77 77 80 89 94 90 86 75 74 71 70 69 77 87 92 92 85 70 67 68 83 92 90 82 92 97 96 92
66 67 71 76 73 78 80 67 63 53 57 73 76 78 79 87 81 76 88 98 97 93 84 76 73 76 94 92 92 97 96 82 81 86 85 78 71 72 66 83 88 96 94
65 68 71 73 74 73 70 54 53 59 80 89 89 86 83 83 83 80 71 94 89 92 84 83 85 77 79 82 80 96 93 82 88 92 87 83 78 75 76 76 76 87 92
62 68 68 69 64 50 55 57 58 75 78 91 90 93 93 91 70 74 67 66 69 94 93 89 92 92 80 78 88 93 79 86 98 96 95 93 94 94 84 86 86 84 83
68 68 67 60 54 53 59 63 70 80 91 93 90 95 95 92 94 71 72 72 74 90 91 92 90 80 87 92 91 88 94 96 97 98 97 96 97 91 83 88 87 92 94
71 72 69 71 74 68 61 68 80 95 95 91 93 94 97 97 95 92 89 93 90 89 88 94 93 90 92 96 92 92 93 94 96 96 96 96 96 98 97 98 98 96 97
76 76 82 87 83 76 68 74 92 77 80 93 95 94 97 98 94 70 68 78 84 94 92 98 92 88 89 92 89 90 92 95 96 96 97 96 95 95 97 98 98 98 98
84 93 94 94 92 85 81 87 77 73 68 65 68 83 92 74 68 66 62 61 70 75 90 95 97 95 92 88 92 92 92 95 93 94 97 96 97 96 96 97 98 99 99
86 88 96 92 95 95 95 95 95 85 78 76 72 71 71 66 68 67 66 61 62 75 96 94 97 96 95 88 92 93 94 96 93 94 95 96 97 96 97 98 98 99 98
87 89 93 96 96 96 89 79 89 96 96 94 87 84 83 68 61 76 72 70 93 86 93 92 95 96 95 90 91 93 93 94 94 93 94 95 96 97 98 97 98 99 98
84 93 94 93 95 93 90 94 95 95 96 95 95 99 98 65 66 67 68 95 96 97 95 89 93 96 96 92 96 94 96 95 94 95 93 94 94 96 96 98 98 98 98
89 92 91 94 92 90 96 95 94 95 96 96 96 97 96 92 95 98 98 98 97 97 98 97 93 94 97 93 97 97 94 93 93 94 95 94 94 95 95 98 98 98 98
96 95 94 96 96 95 96 96 95 95 94 95 96 97 89 93 96 99 97 98 98 97 98 97 97 97 97 97 95 96 96 96 94 95 95 94 95 96 92 94 98 97 96
91 92 94 92 95 96 96 97 92 94 96 96 96 98 95 97 98 98 97 98 97 96 97 97 97 97 97 96 97 98 97 98 97 96 95 94 95 95 94 95 93 98 95
94 95 96 95 94 98 99 96 95 96 96 95 95 96 97 97 97 96 96 97 98 98 98 97 98 97 96 95 97 97 98 97 97 97 97 96 96 95 96 98 97 97 98
96 97 97 93 98 98 99 97 95 93 92 96 96 96 96 97 96 96 96 97 98 97 99 97 97 95 94 94 97 96 96 97 97 96 96 98 96 94 95 96 95 96 97
94 96 96 93 98 97 97 97 95 94 96 97 97 96 96 96 97 96 96 96 97 97 96 97 97 94 88 88 92 91 91 89 92 90 95 97 96 93 94 95 96 96 95
96 96 96 94 98 98 98 99 97 97 96 96 96 97 96 97 97 96 96 96 96 97 93 97 95 89 84 94 90 88 88 89 90 88 93 96 96 96 95 94 92 95 92

GFSGL_sfc_rhum_006.txt.gz
RH
62 63 65 66 67 72 73 67 68 69 70 64 64 63 61 65 71 78 84 89 93 89 82 76 75 73 79 77 77 74 86 91 98 81 71 62 60 58 52 53 62 71 83
66 68 70 70 66 70 70 68 71 66 68 63 61 58 59 60 64 68 78 76 70 71 72 74 71 52 66 66 69 70 72 68 74 88 69 64 58 58 59 60 52 42 74
51 66 74 73 80 70 68 68 62 63 59 56 54 54 55 60 61 68 70 70 69 70 71 73 72 68 67 66 69 74 73 59 67 68 66 68 65 61 57 65 62 63 47
45 54 58 62 73 72 70 75 78 81 80 61 51 52 59 59 64 63 64 69 69 66 71 73 73 70 70 74 73 76 70 81 76 72 75 72 72 62 69 74 78 74 67
48 50 67 86 81 78 74 80 83 86 78 55 50 54 62 62 60 70 67 68 68 68 70 68 64 64 59 61 71 98 97 93 80 76 76 76 73 74 72 79 77 78 73
50 64 75 82 81 84 84 86 91 90 55 50 54 63 66 53 73 71 68 71 67 67 74 70 72 65 67 69 72 70 70 88 86 95 79 77 75 75 80 79 82 82 75
54 65 69 81 84 88 89 92 92 71 56 58 62 66 72 73 75 72 72 71 74 78 81 78 71 57 72 80 80 73 72 71 71 84 91 89 86 80 80 85 86 88 90
68 66 70 74 79 82 88 85 86 61 60 61 75 75 75 68 74 78 78 90 89 88 84 83 79 76 74 71 73 87 83 83 79 74 83 86 89 86 84 78 84 90 95
66 70 72 76 79 81 82 87 90 75 61 74 76 76 85 91 80 78 84 97 93 89 79 75 73 80 79 80 92 90 87 76 65 67 74 78 82 85 88 95 94 92 91
69 71 73 78 81 82 86 90 87 59 70 74 81 86 81 87 76 69 74 99 96 90 84 74 74 73 77 82 94 96 96 81 81 83 87 82 75 77 68 76 92 97 98
66 70 74 75 77 79 84 70 59 74 80 89 86 89 85 81 84 67 65 92 92 92 85 84 82 84 80 73 77 94 94 91 92 93 91 88 85 81 80 81 85 89 93
67 70 71 71 64 53 64 65 70 76 83 93 94 95 95 94 65 68 65 67 70 97 93 90 94 76 83 87 90 89 83 92 97 98 96 94 96 96 87 86 86 90 88
72 73 73 71 70 71 70 71 79 84 94 94 91 96 97 92 92 73 74 69 75 95 93 85 74 76 84 89 84 90 94 95 97 98 96 95 96 94 88 92 88 88 93
74 76 80 82 84 81 72 74 80 96 96 92 95 95 98 96 97 94 92 95 91 93 92 95 92 86 87 90 91 92 94 95 96 96 96 95 96 97 97 97 98 98 97
77 79 83 93 86 84 74 79 89 75 81 94 95 94 97 97 94 77 73 84 92 92 94 97 93 89 87 88 88 86 92 94 94 96 96 96 95 96 96 98 98 97 99
85 89 94 97 96 88 84 82 77 75 74 74 73 83 96 80 71 71 65 62 58 68 94 98 98 97 94 94 96 94 89 93 94 94 95 95 95 96 96 98 97 98 98
99 98 94 94 97 97 97 96 93 83 81 81 75 73 74 77 70 68 66 63 60 78 97 98 98 98 99 93 94 96 96 95 94 94 95 95 95 95 97 97 99 99 99
93 93 95 95 97 97 98 93 94 95 97 95 87 82 81 74 65 74 71 71 93 91 97 98 99 98 96 93 94 95 96 95 95 94 95 95 96 96 98 98 98 99 99
92 95 94 97 95 96 95 96 97 95 96 97 98 96 98 79 68 69 73 95 96 97 98 98 98 99 98 97 99 97 98 97 96 97 95 94 95 95 95 96 98 99 97
88 92 96 96 95 92 96 97 96 96 97 96 97 98 98 93 93 99 100 99 99 98 99 97 98 98 98 98 99 99 99 98 96 95 97 96 96 96 96 96 98 100 99
94 89 91 94 97 95 97 98 96 97 96 96 96 98 94 92 94 97 99 99 98 98 98 98 98 99 99 98 98 99 99 98 98 97 98 97 98 98 95 96 98 97 96
95 91 94 93 94 94 97 98 98 96 97 98 97 98 98 97 97 97 99 97 96 96 96 97 98 98 98 97 98 98 98 99 98 98 97 97 98 98 96 97 97 98 97
97 96 97 98 94 95 100 97 98 97 96 96 97 97 100 98 98 97 98 96 98 98 98 99 99 98 98 98 98 97 98 97 98 99 100 98 98 97 97 99 98 98 98
97 97 96 98 98 97 100 98 97 96 95 96 98 98 99 100 98 98 96 96 99 98 100 99 98 96 97 98 99 98 97 97 98 97 98 99 99 96 97 97 98 97 97
98 96 97 96 94 92 98 99 96 95 95 96 98 98 97 99 99 98 96 98 97 99 97 99 98 97 94 93 96 94 94 91 94 91 97 98 99 96 97 97 97 97 96
97 96 96 95 96 97 98 98 97 96 98 95 96 97 97 98 98 99 97 98 98 98 97 99 96 95 94 95 94 93 89 91 92 90 96 97 98 97 96 96 94 97 96

GFSGL_sfc_rhum_009.txt.gz
RH
62 68 76 77 76 78 80 78 75 73 72 73 73 66 62 61 66 70 74 78 89 88 78 76 75 74 80 83 85 82 79 84 89 78 80 69 57 60 54 63 64 69 91
58 64 67 70 71 79 79 77 75 71 71 75 77 76 67 61 63 67 70 79 74 72 72 74 72 52 72 76 79 72 75 72 80 81 85 72 61 56 59 62 51 46 64
48 55 61 69 79 87 86 68 67 75 79 84 82 73 64 60 62 67 73 72 69 70 71 72 72 73 75 73 72 77 78 70 76 78 72 74 70 65 60 67 61 68 48
48 56 73 82 82 75 71 75 78 82 90 91 88 70 62 60 62 67 67 68 70 68 71 74 73 74 73 76 72 90 88 95 95 87 79 78 72 67 75 72 73 73 70
49 60 73 84 84 82 83 84 86 89 88 92 74 59 63 62 63 67 65 71 72 73 72 69 69 69 64 61 63 82 82 92 87 90 91 77 70 74 70 80 76 79 74
51 63 70 73 81 88 90 92 88 91 94 61 71 66 72 58 73 69 71 76 71 71 78 72 73 72 70 64 68 70 71 88 93 89 85 94 91 78 79 81 82 85 80
54 66 72 76 83 86 87 94 94 93 78 74 65 70 70 71 74 74 80 78 84 88 88 84 75 59 69 73 73 72 72 74 77 85 90 88 83 81 81 86 88 87 88
57 72 73 77 79 82 88 89 91 93 92 70 76 76 78 78 80 82 86 82 92 89 79 79 81 78 81 73 90 86 88 77 76 80 88 85 85 84 85 79 82 86 89
57 71 75 78 83 86 88 90 91 93 81 78 78 82 87 91 72 74 75 91 89 83 75 76 73 74 76 84 94 92 85 79 65 65 66 69 80 90 87 94 98 92 91
61 72 75 80 85 85 86 92 90 66 77 78 77 86 74 82 72 65 68 99 96 90 86 77 77 74 79 74 87 93 95 78 77 82 85 83 79 77 70 80 94 97 96
65 70 73 75 74 74 73 69 63 79 82 87 87 88 82 80 82 63 63 93 94 93 89 86 85 81 77 80 82 95 94 89 90 93 89 91 86 83 80 80 85 88 92
69 74 75 74 70 67 77 74 81 86 81 91 96 96 95 95 66 69 65 67 70 98 95 90 93 69 76 82 84 90 88 94 96 96 96 94 95 94 86 89 89 89 87
77 79 78 77 79 80 75 79 81 85 94 92 91 96 97 92 91 75 77 67 79 98 96 82 73 71 75 79 76 86 92 94 96 96 95 94 95 94 92 95 92 93 95
83 80 77 80 84 84 74 74 81 96 96 87 96 96 98 95 96 95 93 96 94 89 94 96 92 85 87 89 86 84 92 94 95 95 95 94 95 97 97 97 97 97 97
86 78 83 89 88 79 73 80 88 77 80 93 95 94 99 98 92 81 82 93 93 92 94 98 97 91 90 90 90 89 88 89 92 94 94 94 94 95 96 97 97 98 98
95 95 98 99 92 85 85 86 75 78 79 79 79 86 95 82 73 71 67 64 61 68 94 99 100 99 97 94 95 96 94 92 91 92 94 94 94 95 95 95 96 96 97
94 91 98 99 95 93 97 97 96 82 78 80 82 78 78 78 73 69 67 63 61 79 98 99 100 100 100 94 94 96 98 96 93 94 94 95 95 94 96 95 97 98 98
92 98 99 99 95 96 97 96 98 97 96 95 85 85 80 80 73 66 72 73 92 90 98 99 100 100 99 96 95 96 96 96 98 95 95 96 96 96 96 96 96 99 98
93 96 98 96 95 95 93 96 98 97 97 98 99 98 98 88 76 72 73 95 96 97 97 98 99 100 99 98 100 98 99 98 98 99 98 96 96 96 95 96 96 97 96
95 94 94 91 92 93 95 98 98 98 97 98 98 97 99 97 94 95 100 99 99 97 98 97 97 99 99 99 100 100 98 98 97 96 98 99 98 98 96 96 98 100 98
97 94 90 92 95 97 98 98 98 98 96 96 96 97 96 96 96 96 95 100 98 97 97 97 98 100 100 100 98 100 100 99 98 97 97 97 99 99 96 97 98 97 96
99 97 93 91 92 95 94 97 99 98 98 97 97 98 99 99 97 96 96 97 97 96 96 96 97 97 98 97 98 100 99 99 98 98 98 97 98 98 97 97 97 98 97
98 98 97 97 97 98 98 98 100 99 98 97 96 97 99 99 97 98 97 97 98 98 97 98 98 98 99 99 100 99 99 98 98 99 99 99 98 98 98 98 98 98 97
98 98 97 96 99 100 98 97 98 99 97 96 97 98 100 99 99 98 98 98 99 98 99 98 97 96 97 100 100 100 98 99 100 99 98 99 99 96 98 97 97 97 97
98 98 97 97 97 96 95 94 96 96 96 96 94 98 97 100 100 100 99 98 98 100 98 98 98 97 93 94 96 97 98 96 96 96 98 98 99 97 97 97 97 97 97
98 98 97 97 97 97 96 95 94 92 94 95 95 95 96 97 97 97 98 98 99 98 98 99 99 96 95 95 95 98 96 94 95 93 99 98 98 97 97 97 95 96 96

GFSGL_sfc_rhum_012.txt.gz
RH
54 61 62 66 71 77 83 87 85 79 77 79 79 80 73 73 76 76 76 75 81 90 78 74 73 73 77 80 79 75 75 78 82 65 63 62 68 73 58 60 60 65 77
52 58 62 68 72 77 84 85 82 79 78 76 80 81 81 81 74 72 71 73 81 73 71 72 72 56 70 71 72 70 70 70 78 85 73 71 71 71 62 64 54 47 59
48 54 63 71 78 78 74 74 77 77 80 83 83 87 87 74 65 68 73 76 71 68 70 73 72 73 74 74 71 74 74 71 84 92 88 75 70 70 65 60 64 62 44
48 55 66 73 82 85 83 80 80 83 88 86 89 92 77 63 64 69 69 67 68 70 74 74 75 74 73 74 74 73 73 84 78 81 84 81 78 68 68 69 66 68 58
51 54 65 76 80 86 89 91 92 92 85 87 87 65 66 64 62 68 63 69 73 75 75 72 71 73 72 68 63 72 75 84 83 84 80 73 84 81 66 66 68 67 66
54 56 66 75 78 82 88 89 93 94 94 94 76 73 70 60 71 70 75 84 78 82 85 82 80 72 70 67 69 69 69 78 86 90 81 82 78 82 90 89 71 75 64
57 58 68 77 80 82 85 89 92 93 91 83 77 71 75 77 75 76 86 87 86 85 84 76 68 57 71 73 78 74 75 84 91 96 91 84 83 82 69 74 79 78 73
57 61 72 78 81 84 88 90 91 92 94 91 77 78 83 85 78 79 80 82 84 82 76 75 75 76 76 70 82 92 77 77 75 70 74 81 82 86 76 73 75 75 78
58 62 70 80 83 87 89 89 92 94 86 78 78 81 87 80 73 67 71 89 87 82 72 74 73 76 76 79 85 88 79 71 63 68 67 68 69 71 82 93 96 90 85
63 64 74 78 83 84 82 85 88 69 70 78 80 83 70 81 68 63 68 94 97 88 87 77 78 74 73 76 94 92 93 80 75 80 81 77 77 78 74 73 84 95 93
66 72 75 77 79 77 80 80 75 77 84 91 89 86 79 80 77 63 63 93 91 93 89 87 84 81 67 68 74 92 95 88 87 88 84 84 84 81 78 76 75 84 90
76 79 80 81 75 72 84 77 80 90 84 95 98 97 93 93 68 73 67 68 69 99 95 92 94 70 66 69 73 76 84 90 94 94 91 88 90 90 82 81 81 81 79
89 88 85 83 78 80 86 77 81 86 93 93 89 96 93 92 92 76 77 70 72 97 94 80 72 70 73 76 75 76 89 92 94 94 93 90 90 90 88 93 89 87 88
93 90 87 85 82 82 75 72 81 97 96 90 97 96 97 97 96 93 93 96 90 87 92 92 94 87 90 89 85 85 89 90 93 93 92 91 91 94 94 94 94 93 93
96 97 95 94 95 87 72 78 86 77 82 94 95 95 98 99 92 83 85 95 95 94 95 97 96 93 88 89 86 86 89 87 90 93 93 92 91 91 94 95 95 95 95
95 93 87 89 97 94 81 83 77 80 79 81 82 87 95 82 73 73 71 63 62 69 93 100 100 100 98 93 93 91 92 90 88 91 93 91 91 92 92 91 93 95 95
98 94 91 97 99 98 98 95 95 84 77 78 81 84 80 81 80 73 69 67 61 79 97 99 100 100 100 95 94 91 94 93 93 90 93 93 94 90 94 92 93 92 92
97 98 98 98 99 98 96 96 97 98 97 95 83 87 84 81 81 75 68 75 92 91 97 98 100 100 99 95 97 94 92 92 93 93 95 95 96 94 94 94 93 95 90
98 98 98 98 97 95 96 97 97 97 97 97 98 96 99 87 85 78 75 96 96 96 94 95 98 99 97 96 99 100 99 96 96 97 96 96 97 94 93 93 95 96 95
97 99 99 97 94 93 96 97 96 98 98 97 98 96 99 100 100 98 100 99 99 97 97 95 95 96 98 98 100 100 100 99 96 94 97 97 97 96 96 96 96 96 89
98 98 98 98 95 90 94 95 95 98 98 98 96 96 95 98 97 98 96 98 98 98 97 96 96 98 99 100 96 100 99 99 98 96 95 95 98 97 94 94 94 92 86
97 99 98 97 97 97 94 92 95 97 97 98 97 98 100 100 98 98 97 96 96 97 97 96 96 96 96 95 96 100 100 100 99 98 97 95 94 94 94 93 94 94 88
98 98 98 97 97 98 98 96 95 96 97 98 98 97 98 99 99 98 96 97 97 97 98 98 97 97 97 97 98 96 98 96 96 100 100 99 96 94 95 94 93 92 90
98 98 98 97 97 97 98 98 97 97 95 96 97 97 96 96 97 97 97 97 98 99 99 98 97 96 96 98 99 99 96 98 98 97 100 100 99 95 93 90 89 91 91
97 98 98 97 97 97 97 96 95 93 91 93 94 95 94 93 96 99 98 98 98 100 98 98 98 96 96 93 95 95 98 98 96 96 96 100 100 98 95 91 91 87 89
98 98 98 98 97 97 97 96 96 96 96 96 96 96 94 92 92 94 96 97 98 99 98 98 97 96 96 95 92 96 98 97 96 92 99 96 98 97 96 95 90 90 86

GFSGL_sfc_rhum_015.txt.gz
RH
35 41 44 44 46 47 46 49 51 59 60 61 62 63 61 56 61 65 58 55 55 53 56 61 57 52 48 48 48 45 44 45 55 44 36 38 46 48 43 40 46 49 53
37 41 42 44 45 49 50 52 57 58 60 62 62 62 63 67 68 61 51 47 52 53 53 53 51 45 52 48 49 49 47 47 49 50 44 52 50 52 51 50 46 34 44
34 34 39 44 50 52 52 55 59 61 61 61 60 69 75 69 61 49 51 52 54 52 51 55 55 54 54 52 51 51 52 47 50 62 54 45 48 48 53 54 68 52 39
34 33 41 48 52 55 56 57 61 63 68 68 73 83 70 53 47 50 51 51 50 52 57 58 60 60 57 53 57 67 57 66 59 58 58 51 47 43 56 55 57 47 44
37 37 43 49 55 56 58 59 63 66 66 71 74 65 62 52 45 51 48 52 56 58 58 54 55 61 68 62 55 60 62 65 64 61 56 52 54 48 63 74 64 48 44
39 42 44 50 55 58 60 64 64 64 63 68 61 65 62 46 76 77 69 59 58 53 50 48 46 52 52 64 66 68 67 68 73 68 74 55 48 49 50 72 77 74 57
42 43 46 51 56 60 59 56 58 63 63 70 72 60 57 61 79 80 82 52 49 50 49 47 46 44 57 52 58 63 74 76 75 79 79 59 54 49 55 59 60 62 58
43 44 46 50 56 59 59 56 59 61 69 71 64 58 61 61 75 70 69 55 50 49 48 50 51 52 53 61 72 66 55 50 52 58 69 66 56 53 53 61 63 58 52
42 45 46 52 59 58 58 57 58 60 56 55 57 61 61 56 68 63 60 61 60 57 54 52 55 54 64 74 69 69 56 49 57 61 68 76 79 72 67 67 85 81 77
52 52 53 57 59 59 59 57 57 57 51 54 62 60 60 60 63 61 59 67 76 66 59 54 64 67 73 66 69 72 74 65 58 58 57 55 58 58 70 64 57 78 81
54 55 55 57 58 60 59 58 57 54 60 72 72 66 60 61 60 62 63 74 71 67 59 55 60 73 65 64 66 72 80 72 75 68 58 53 52 54 57 58 56 58 65
58 61 64 62 62 58 62 59 56 60 67 76 88 80 68 73 63 65 67 70 66 76 72 62 70 66 66 68 64 71 74 77 80 79 77 71 71 70 62 64 67 65 56
67 70 69 68 63 60 62 60 57 58 65 69 65 75 67 69 67 69 71 77 70 75 73 66 68 69 66 59 66 72 75 74 81 82 81 75 77 75 76 81 81 73 66
72 74 73 70 74 66 62 53 55 64 67 66 70 70 68 68 73 67 69 74 76 69 72 64 76 73 72 71 63 63 69 71 80 83 82 80 82 87 89 90 88 87 85
74 64 67 76 71 75 76 58 59 56 62 66 66 71 88 89 78 73 73 76 76 72 78 73 68 68 64 59 62 64 64 63 72 81 82 81 80 79 84 88 90 90 91
80 74 82 82 78 78 77 67 76 78 80 81 83 86 90 81 76 70 72 72 65 66 68 74 80 82 76 65 68 68 66 64 68 77 82 80 81 82 80 78 83 90 90
81 81 82 86 80 85 86 86 81 73 76 80 82 82 86 82 81 80 74 72 68 71 73 72 83 84 79 64 62 63 67 68 74 78 82 84 85 80 81 79 79 78 79
81 92 89 87 88 89 87 89 88 90 88 81 81 75 80 84 82 80 77 70 76 75 72 73 78 78 74 64 62 63 65 70 70 75 84 86 88 86 84 80 77 81 74
78 83 93 95 95 93 89 88 90 90 85 83 81 84 86 93 85 81 80 83 81 75 73 71 75 76 73 70 78 80 84 79 80 81 84 85 89 82 82 80 82 82 76
78 91 87 92 95 93 89 86 84 88 88 84 85 86 73 91 97 96 96 94 90 80 80 76 72 73 78 78 83 86 82 80 75 72 79 87 88 83 83 83 83 82 72
80 82 88 98 95 87 91 94 85 88 85 82 84 98 89 83 88 89 88 91 90 84 87 82 83 83 84 86 78 81 78 81 78 75 75 79 86 83 77 80 80 76 70
83 83 87 92 92 95 92 89 94 90 84 84 84 90 92 92 88 88 90 91 91 88 85 87 84 79 79 77 78 85 82 84 83 76 75 79 80 78 77 76 77 78 73
91 95 92 86 90 94 95 90 95 96 92 89 85 85 89 93 90 87 90 93 92 92 89 88 92 88 85 87 86 82 82 76 79 81 80 80 79 78 79 78 74 72 73
97 96 92 91 93 96 96 95 95 94 91 91 92 89 89 91 94 91 91 94 93 93 93 93 89 86 83 90 90 84 78 82 82 77 79 81 81 77 77 73 75 76 74
94 95 95 96 99 99 98 95 96 96 96 94 92 93 91 95 92 94 94 90 90 92 92 94 91 87 89 90 87 85 81 87 84 82 75 80 84 86 80 72 79 74 74
92 97 100 99 99 98 96 96 96 98 98 100 100 99 99 98 98 97 92 91 91 92 91 92 91 90 89 87 86 85 89 90 84 85 78 75 80 77 76 75 76 78 73

GFSGL_sfc_rhum_018.txt.gz
RH
29 29 32 30 32 32 33 34 34 38 37 38 40 45 48 56 54 52 55 59 45 38 39 41 43 40 37 37 38 38 39 38 44 38 32 33 37 39 40 40 41 38 35
26 28 30 29 28 32 34 34 36 39 40 41 44 44 44 46 48 57 58 44 37 38 39 40 40 30 42 41 38 41 39 40 45 48 41 41 43 41 40 43 39 29 31
23 23 26 28 31 34 35 36 37 39 40 43 43 45 46 57 62 55 42 40 40 41 43 45 45 46 46 41 40 40 40 44 53 59 50 44 42 40 43 42 42 46 42
23 23 26 32 33 35 37 37 40 41 44 43 45 47 54 47 41 41 40 42 42 42 48 49 48 46 45 46 43 44 44 56 54 52 49 46 44 38 44 47 56 50 55
27 25 29 33 35 36 41 39 43 45 43 43 45 47 51 52 50 56 46 45 46 46 46 41 39 46 55 55 48 53 53 53 57 55 55 54 53 52 46 42 48 46 48
28 29 30 34 35 39 40 44 43 41 42 44 44 50 57 44 77 78 66 43 43 41 39 37 37 43 46 58 60 61 60 61 66 64 65 64 55 52 51 51 55 73 54
28 29 31 35 38 39 37 38 40 43 45 46 48 55 56 52 79 75 66 42 44 40 39 38 36 32 47 46 53 60 69 76 69 72 65 63 61 59 48 44 47 58 58
31 32 32 33 35 35 38 40 44 43 45 46 47 49 48 52 74 64 63 46 43 40 41 42 42 42 45 56 58 61 47 42 37 38 51 54 58 63 68 60 55 54 52
29 28 30 37 37 36 39 44 45 45 46 44 44 49 52 52 66 61 60 53 51 50 45 42 44 45 59 68 63 54 44 40 44 57 58 62 63 65 66 62 66 63 70
33 34 35 35 37 40 43 45 47 47 44 41 46 53 59 54 63 60 57 58 69 59 49 42 47 58 67 64 67 64 67 50 49 51 51 48 49 52 65 60 54 70 66
36 36 35 37 42 44 46 48 48 47 46 57 61 59 55 56 58 61 61 69 67 62 54 49 45 61 64 64 65 66 72 62 62 63 55 54 48 50 49 52 57 62 67
39 40 41 45 47 43 50 50 51 48 51 62 90 75 58 63 66 66 65 67 66 77 68 58 64 61 66 64 59 67 68 72 70 74 72 67 68 69 62 60 62 59 57
46 47 49 51 50 48 51 52 50 47 53 58 56 63 58 64 63 72 67 68 74 77 69 67 68 64 60 52 53 63 66 63 71 77 74 71 73 74 75 83 69 62 62
51 51 50 52 57 59 61 55 52 53 56 54 58 56 52 54 63 62 67 66 79 73 66 63 66 72 64 58 52 50 54 57 66 78 75 70 71 77 83 86 90 86 79
50 52 53 55 58 58 60 66 63 49 54 60 58 57 83 84 72 71 70 68 73 68 79 76 65 62 56 52 52 53 54 52 56 71 76 75 71 72 75 80 84 93 81
66 59 58 62 62 62 61 62 77 73 77 78 79 84 91 85 80 75 72 71 72 68 70 72 78 80 73 60 61 59 58 56 52 64 74 74 74 76 75 76 79 84 87
64 64 61 67 65 66 67 68 73 74 81 82 82 83 85 89 85 80 75 75 73 74 75 69 77 81 76 57 55 54 60 60 62 59 69 74 78 76 79 76 79 78 78
64 79 67 67 72 74 74 76 76 81 85 84 86 77 79 81 87 82 80 79 74 82 72 72 74 74 68 56 54 55 58 66 65 61 68 73 75 74 80 77 78 81 72
64 68 78 84 84 86 85 86 83 80 82 79 70 75 80 83 84 86 84 88 79 72 64 61 68 70 66 61 73 76 76 75 76 75 72 70 77 70 68 67 73 76 70
62 82 83 72 75 88 94 86 81 88 89 85 78 69 60 84 100 100 100 99 93 78 74 66 64 66 72 72 79 82 80 76 73 67 71 74 76 73 70 69 70 70 60
61 65 78 78 73 73 82 82 79 89 89 86 87 97 81 79 87 87 85 99 93 81 87 75 77 78 78 78 72 77 74 77 72 69 68 68 75 73 65 66 67 62 58
74 86 87 89 80 87 83 83 93 91 91 92 91 90 85 97 88 84 86 95 97 92 84 85 83 73 72 71 72 79 79 79 78 75 73 67 68 70 68 65 66 67 61
84 93 89 82 81 84 94 93 98 100 98 100 95 91 89 98 99 87 95 100 97 99 94 87 98 85 80 82 84 79 78 75 73 79 76 73 70 74 74 72 65 65 65
88 97 86 90 97 94 100 100 99 95 97 100 100 100 100 100 100 100 100 100 100 100 100 92 89 86 80 87 86 83 74 77 76 73 78 73 73 71 74 68 65 67 67
100 99 99 97 100 100 100 99 100 100 100 100 100 100 100 100 100 100 100 100 100 100 100 98 95 90 90 84 83 84 76 78 77 73 74 74 75 75 74 69 69 67 66
92 89 94 99 100 100 100 100 100 100 100 100 100 100 100 100 99 100 100 100 100 100 100 99 97 92 90 87 86 84 82 83 84 81 77 70 74 73 71 71 66 69 68

GFSGL_sfc_rhum_021.txt.gz
RH
33 37 42 30 30 31 32 32 31 34 33 33 34 37 38 38 38 43 48 53 55 56 52 42 46 45 45 40 41 37 38 40 49 41 32 36 41 44 39 42 41 43 41
30 31 29 29 27 29 32 32 32 34 34 33 35 36 35 35 39 45 51 55 54 47 42 45 47 36 45 43 37 39 38 38 39 45 42 45 46 44 44 45 37 30 37
30 27 25 28 28 30 32 32 32 33 35 35 35 38 38 45 54 44 39 40 41 44 47 44 46 47 47 39 40 41 39 33 42 57 57 51 48 43 43 42 38 44 32
29 21 24 27 30 32 32 33 35 34 37 36 37 37 40 39 40 44 45 45 46 44 49 49 46 43 41 47 43 44 42 49 49 53 51 46 44 44 50 54 52 50 45
25 23 26 27 30 32 34 34 36 38 37 35 37 38 38 45 46 50 47 49 47 49 46 41 37 43 47 50 45 50 51 51 52 52 54 59 54 57 62 52 57 50 48
28 28 27 28 30 34 33 37 37 36 35 37 38 39 42 46 81 72 61 45 43 46 44 37 36 45 47 55 56 59 59 58 65 75 65 50 48 53 55 68 68 58 51
28 26 27 29 31 32 30 29 32 36 39 40 40 43 48 53 79 70 62 44 44 43 41 39 36 29 46 43 54 59 61 67 70 66 70 60 66 62 60 69 68 69 61
28 29 29 30 26 27 29 30 34 38 41 42 42 43 46 54 75 64 62 51 46 45 43 42 42 42 48 59 55 53 45 40 38 33 44 50 53 49 49 49 54 51 52
31 27 24 26 29 30 30 33 37 40 43 42 39 42 45 56 71 65 60 52 51 49 45 43 42 41 62 65 59 57 48 44 41 54 50 58 64 65 62 66 70 64 77
26 25 26 27 28 30 34 39 40 43 42 37 38 41 61 57 70 63 58 59 61 57 50 45 54 53 62 62 67 64 68 50 45 46 51 53 53 53 64 60 57 73 70
28 28 28 29 31 35 39 40 44 45 46 54 56 56 54 59 63 66 61 63 65 62 56 51 49 61 60 63 64 65 71 60 60 62 64 56 54 56 58 57 61 72 81
36 36 35 34 37 38 44 46 46 46 53 58 81 66 65 59 71 69 66 67 66 74 68 59 65 68 63 63 60 56 62 67 72 71 73 67 70 69 61 64 64 58 62
44 43 40 41 42 44 48 52 52 49 55 58 62 73 66 63 67 73 73 69 71 80 69 67 69 67 60 58 51 55 68 59 63 74 80 72 68 68 64 80 79 91 60
46 44 46 50 49 47 44 47 55 58 60 62 63 63 59 51 53 64 75 74 78 78 76 69 68 72 70 71 64 54 54 56 57 62 75 71 71 71 74 74 88 92 93
53 54 55 64 60 53 47 52 60 58 65 62 64 67 90 86 65 71 73 76 79 76 77 75 68 64 62 58 56 55 57 56 55 59 69 76 75 69 69 75 78 88 96
66 65 69 63 57 53 52 55 70 77 80 72 76 81 90 79 81 77 76 73 67 73 72 72 76 82 75 66 62 60 59 60 58 58 62 62 70 76 73 73 74 80 82
70 71 62 67 61 58 62 70 68 66 82 82 81 82 82 84 84 86 80 76 74 79 79 71 80 81 78 62 57 54 58 58 65 61 62 65 68 67 74 78 76 77 76
59 77 62 61 72 77 71 82 74 77 92 88 92 85 82 82 84 86 85 81 82 84 72 70 72 74 68 60 55 57 61 66 66 63 71 73 74 70 71 65 72 81 75
61 59 67 80 81 82 84 84 86 84 84 83 79 84 85 84 85 86 88 85 80 76 70 71 78 68 66 63 72 76 79 79 76 77 73 72 82 71 68 64 66 68 68
54 78 79 75 77 78 80 80 77 92 86 84 88 81 70 71 98 100 99 100 96 80 80 72 68 65 71 71 81 82 79 82 79 73 73 75 77 77 73 68 71 68 58
65 72 84 82 80 80 84 84 80 84 85 84 88 98 85 77 88 91 88 96 95 84 87 79 83 88 90 84 75 79 76 75 74 75 72 71 74 76 73 68 66 62 56
75 80 81 86 85 88 90 88 83 86 85 86 88 93 97 95 88 86 85 92 94 90 84 86 82 81 82 78 76 85 80 82 77 76 76 73 69 71 74 75 69 66 62
83 88 86 80 83 84 95 87 92 98 95 97 92 91 100 100 98 89 92 98 93 94 93 88 96 89 88 92 90 81 79 77 74 74 75 75 70 73 76 78 71 67 66
86 95 84 85 98 91 98 100 100 91 95 99 100 100 100 100 100 100 100 100 100 100 100 98 90 87 85 95 95 85 76 77 75 71 75 76 71 70 75 73 71 70 67
98 100 100 99 100 100 100 100 100 100 100 100 100 100 98 100 100 100 100 100 100 100 100 100 100 92 92 88 89 84 80 74 75 70 75 75 73 73 74 72 72 70 75
99 100 100 100 99 96 99 98 94 97 99 99 100 100 100 99 97 100 99 98 99 99 100 100 100 100 100 93 86 84 81 80 82 79 77 70 74 77 78 73 68 69 68

GFSGL_sfc_rhum_024.txt.gz
RH
46 50 54 50 48 46 48 46 45 48 48 48 49 51 52 54 56 60 64 65 69 75 76 79 79 66 71 68 70 63 61 60 62 52 46 52 54 58 52 52 50 48 48
44 45 47 48 42 48 46 44 46 47 49 48 49 49 50 51 58 65 68 63 66 69 64 65 64 47 65 65 65 62 62 55 56 58 57 59 61 57 56 57 45 38 44
38 38 39 44 43 45 43 46 45 48 48 50 49 54 53 56 57 60 61 61 62 62 65 67 64 63 68 66 67 62 59 49 63 67 62 60 60 57 56 56 55 60 47
39 39 38 45 47 44 45 47 48 50 50 52 53 53 57 51 49 54 53 60 64 62 65 64 62 60 61 62 54 63 56 69 65 65 64 62 62 58 64 73 68 63 63
47 39 43 41 40 43 48 49 50 53 49 51 50 54 56 53 53 64 60 64 67 64 63 56 54 53 50 55 51 66 72 76 71 68 69 71 70 65 66 70 83 78 72
48 43 38 39 39 46 49 51 53 53 51 51 52 54 61 50 78 71 63 62 61 61 63 57 53 54 62 62 62 61 66 79 77 82 82 78 71 73 79 78 81 79 80
43 38 38 40 42 48 41 39 42 50 54 56 57 55 57 74 78 68 64 57 64 66 63 60 52 37 69 67 64 61 63 63 64 72 74 74 89 75 69 69 69 73 74
39 37 41 41 38 38 43 42 48 52 57 60 61 58 58 68 79 69 65 63 70 65 63 62 61 60 78 69 73 71 65 59 54 46 62 61 62 64 68 67 72 72 71
43 46 43 36 37 40 41 48 52 55 59 62 56 56 59 77 79 70 62 73 77 70 61 61 59 58 68 62 73 74 68 62 50 53 53 56 64 69 69 74 87 89 90
47 40 39 36 42 46 49 54 56 57 55 58 56 64 66 84 78 69 63 90 83 88 74 66 64 65 59 61 83 85 85 73 66 60 66 67 64 66 68 88 97 94 93
54 42 42 46 47 48 53 55 59 61 64 74 70 72 68 80 83 71 66 80 92 92 86 84 84 65 68 65 61 83 84 70 70 77 72 71 74 71 71 72 78 94 97
47 50 51 52 47 42 60 63 64 65 76 76 86 85 90 80 79 78 71 72 72 90 88 89 90 69 68 66 66 64 60 75 88 91 82 81 81 81 75 74 75 88 98
60 65 61 53 49 52 60 63 66 72 79 86 91 93 94 93 92 82 79 77 76 91 92 85 74 72 74 75 68 64 75 88 92 91 85 81 81 78 74 80 78 78 78
67 62 55 63 61 62 59 61 66 88 88 87 90 91 92 91 92 94 90 90 84 87 85 87 88 84 84 82 87 83 89 91 88 92 92 85 84 84 83 81 84 85 89
57 62 69 82 76 71 62 63 81 73 78 78 82 91 95 96 93 83 90 96 96 93 91 92 93 91 91 90 90 86 87 86 90 91 92 89 82 78 81 82 83 84 89
75 78 88 89 85 72 65 69 68 77 78 80 80 83 96 87 80 76 77 78 77 80 92 95 95 94 94 93 92 92 90 86 90 90 93 91 93 84 79 77 83 88 89
82 83 85 88 86 84 89 84 86 80 79 84 86 83 81 81 83 85 86 84 82 84 96 95 93 93 94 93 92 91 89 90 86 91 92 94 95 92 84 82 83 87 86
78 80 80 79 91 92 91 84 78 83 88 85 89 90 87 86 85 84 86 90 94 88 92 91 90 91 93 92 91 90 92 93 93 93 93 93 95 96 93 85 82 88 84
75 76 81 92 94 90 86 86 84 89 91 87 85 90 97 92 88 86 87 95 92 90 88 92 87 87 89 92 93 93 92 94 93 94 96 94 93 95 93 93 87 85 83
67 82 83 85 89 89 88 88 86 86 85 86 91 88 90 95 98 96 95 94 93 89 87 85 85 91 92 93 95 94 95 95 95 96 95 93 94 94 95 94 93 91 82
71 79 88 95 99 98 93 88 87 93 97 88 85 90 90 96 99 96 93 94 93 90 89 86 87 86 89 93 93 94 95 94 93 93 93 93 94 94 92 94 94 91 81
81 81 88 95 92 90 90 89 86 86 90 88 88 87 88 96 98 98 98 93 92 91 89 88 87 87 89 90 91 92 91 94 95 94 94 94 92 94 94 95 95 92 91
86 86 87 90 90 91 92 87 88 89 90 98 97 94 94 96 98 98 98 97 95 92 91 91 97 90 87 89 87 87 90 92 92 92 94 94 93 94 95 94 94 92 91
94 98 97 98 98 97 92 92 93 92 94 98 96 98 98 99 98 99 99 100 99 98 98 99 98 98 93 92 92 87 88 88 92 90 89 93 93 91 93 93 92 91 92
83 89 89 96 98 98 99 96 94 93 94 96 98 98 96 94 93 96 99 99 99 99 98 99 98 98 98 98 98 91 84 86 89 91 91 92 92 89 90 93 92 90 91
91 95 96 93 95 98 99 98 94 93 93 95 94 96 97 95 90 90 89 87 88 92 94 97 96 98 97 98 97 98 86 85 86 86 89 90 93 95 95 94 88 90 90

GFSGL_sfc_rhum_027.txt.gz
RH
60 58 58 55 56 54 53 51 48 49 49 50 51 54 54 58 63 67 73 68 72 77 76 85 86 84 87 82 74 74 72 71 77 69 63 66 66 68 59 64 60 56 56
59 57 57 57 52 49 52 49 51 51 50 50 52 53 57 60 62 66 69 70 67 68 70 70 70 55 71 74 74 68 66 69 76 75 70 67 70 67 68 68 51 45 55
49 51 52 51 48 49 48 49 51 52 52 52 50 56 58 62 62 66 64 63 65 67 72 73 70 68 73 73 67 68 70 57 76 82 72 71 74 71 65 63 65 68 55
46 50 49 51 48 48 49 50 52 51 54 53 54 58 61 60 59 59 63 69 70 68 68 68 67 64 60 61 56 63 62 76 77 81 73 69 69 67 73 78 80 82 77
54 50 48 50 53 50 52 52 54 54 51 52 55 58 59 64 58 66 60 64 65 67 69 62 60 54 53 56 55 68 76 81 85 81 76 76 77 78 79 89 84 76 68
54 54 49 48 49 55 53 51 52 55 54 57 57 59 67 55 77 70 63 61 61 65 68 65 59 62 65 65 64 63 70 85 90 93 82 81 75 82 93 92 81 78 76
60 54 52 53 51 53 47 46 48 49 55 58 61 60 62 73 78 70 66 60 63 74 70 65 58 59 71 68 65 63 65 62 63 80 77 76 75 73 77 76 77 85 85
49 51 50 52 50 48 46 49 56 60 59 61 64 63 68 70 81 74 68 63 72 74 68 66 66 75 75 70 73 75 74 71 65 57 71 67 68 69 77 74 77 78 79
55 46 45 48 49 56 61 67 67 62 63 65 62 65 71 81 81 74 66 75 78 77 71 69 69 72 65 60 74 77 78 74 58 58 60 66 69 71 68 80 91 96 93
58 56 56 62 63 64 72 69 62 59 62 64 58 66 76 83 82 76 69 94 83 92 80 74 67 69 61 62 86 85 90 74 74 71 71 72 73 75 73 82 84 95 93
64 69 70 62 67 67 63 61 66 69 75 84 85 78 79 87 87 79 75 84 90 94 90 91 85 67 68 67 66 86 88 77 77 80 78 78 76 79 76 77 82 88 95
73 70 66 68 63 55 64 67 68 72 83 88 90 89 93 88 85 83 80 78 79 91 88 92 94 74 68 70 75 74 71 78 96 93 94 83 92 84 79 79 82 86 82
70 75 73 70 65 61 65 70 76 80 92 92 96 94 92 94 95 86 83 81 80 92 93 87 81 74 74 83 80 80 83 91 94 97 93 95 89 81 81 84 81 78 82
76 76 76 74 74 76 76 78 82 96 96 96 96 98 98 98 94 97 91 89 87 88 87 90 94 94 95 89 89 84 93 94 94 95 95 94 95 94 94 88 88 90 91
73 75 81 90 87 90 87 86 89 83 86 89 91 92 95 99 98 92 90 94 95 90 97 98 98 97 94 92 94 92 94 95 94 94 94 96 94 95 87 83 84 93 94
87 91 94 96 93 90 89 88 82 82 85 86 85 86 84 87 89 91 98 92 89 95 98 99 97 97 96 95 94 93 96 93 96 95 96 97 97 97 94 85 83 91 92
90 90 93 92 93 94 95 96 94 90 80 78 81 84 88 82 84 86 83 83 86 89 98 97 98 96 95 93 94 94 95 95 93 96 95 96 98 96 96 93 90 86 87
88 89 91 92 92 93 95 94 86 79 85 86 86 85 87 88 87 84 86 94 98 93 97 96 95 94 92 93 94 94 96 97 96 97 96 97 98 98 98 97 95 97 89
86 90 89 90 87 88 90 90 90 95 93 92 92 95 94 90 92 91 89 98 95 96 93 95 94 93 92 92 93 94 95 97 97 98 97 99 98 97 97 97 98 93 94
86 87 88 90 88 88 90 97 98 97 95 95 94 92 96 99 99 97 97 97 96 94 93 92 92 93 92 92 92 95 96 98 98 99 98 99 98 97 96 97 98 99 90
92 90 88 86 91 98 97 97 97 97 96 95 94 94 94 95 95 96 96 95 97 96 94 91 90 90 90 92 94 92 92 94 96 97 96 97 99 93 96 97 98 97 96
95 94 92 94 95 96 96 96 94 98 96 95 91 94 92 96 96 97 97 98 94 95 96 94 92 91 88 88 89 91 91 93 95 95 95 96 97 96 97 98 98 97 95
83 86 86 87 89 87 90 88 96 98 96 97 93 90 99 97 98 98 99 98 98 98 99 97 94 94 92 91 90 88 90 90 88 91 93 96 97 97 98 97 98 97 94
94 93 93 93 94 96 94 91 98 98 98 98 98 97 98 98 98 99 97 98 99 99 100 99 98 98 97 94 95 91 87 87 88 89 89 93 94 96 98 97 97 96 97
90 93 94 93 94 95 94 93 96 97 97 97 97 99 97 95 94 96 95 95 96 96 95 97 99 98 98 97 98 97 92 91 91 89 89 90 93 94 97 96 97 95 94
89 92 90 91 92 92 94 94 95 95 96 96 96 95 95 94 94 95 96 97 92 90 91 90 89 91 95 98 98 98 96 95 96 90 87 87 92 96 98 95 96 96 92

GFSGL_sfc_rhum_030.txt.gz
RH
54 59 56 55 58 57 55 54 52 52 50 52 55 53 54 58 63 70 74 72 71 79 77 84 89 88 93 94 87 74 68 66 75 74 71 72 72 74 66 69 64 63 64
54 60 60 60 60 55 55 52 57 53 55 56 57 54 55 57 62 70 76 70 65 67 71 72 72 67 73 75 72 65 65 67 73 78 76 74 73 72 70 75 59 50 67
61 58 60 56 55 51 55 59 60 58 57 58 56 56 58 61 62 65 73 72 69 70 71 73 71 70 72 71 67 66 70 58 76 82 78 76 76 73 71 71 73 74 63
55 54 56 53 54 57 57 61 63 60 58 59 59 60 64 63 61 62 66 70 71 71 73 70 68 67 63 64 61 64 65 76 78 82 79 76 77 70 81 84 80 79 71
57 54 53 54 57 58 65 62 63 63 57 58 62 64 66 65 65 69 65 69 68 67 68 58 60 58 58 60 59 70 76 81 84 86 83 80 77 78 84 82 92 73 66
53 52 54 58 60 64 63 62 56 52 50 56 60 68 68 63 74 80 71 68 63 65 68 64 60 61 66 67 66 66 68 79 84 95 90 83 81 75 80 81 83 81 84
60 60 60 58 55 58 54 51 54 60 60 61 66 68 69 73 83 76 72 63 66 73 73 66 60 61 71 67 63 61 63 58 58 86 87 84 78 71 72 81 84 87 89
57 56 55 60 58 60 63 71 77 72 66 66 67 69 71 73 84 79 72 67 70 75 73 69 70 71 74 70 71 72 70 70 67 61 78 76 73 76 80 81 92 93 85
55 59 60 67 70 80 84 85 78 74 67 68 67 73 72 82 84 79 71 71 77 77 73 72 72 74 72 64 73 75 74 72 55 59 61 65 66 68 72 85 92 94 91
72 70 75 82 84 86 87 78 70 65 68 73 74 75 76 82 86 81 73 89 83 89 83 75 68 71 70 66 86 86 89 70 70 75 72 70 72 75 72 83 86 96 94
85 86 87 88 86 76 77 71 72 74 77 83 87 89 88 86 88 83 80 82 84 88 89 87 84 71 69 71 70 88 88 75 80 84 78 77 75 76 74 77 86 93 96
87 89 83 73 69 66 77 74 74 78 83 85 92 91 94 90 86 85 83 79 79 88 88 87 91 75 74 75 77 79 78 87 96 96 94 89 86 83 74 76 82 86 88
79 79 78 78 78 77 77 78 81 84 94 90 95 96 95 96 94 88 87 85 82 88 86 83 80 79 80 83 81 81 87 96 97 97 93 94 90 81 78 82 80 80 83
78 80 82 84 83 86 86 88 91 96 94 93 94 93 93 95 97 98 98 96 89 88 86 85 90 94 95 94 95 86 94 96 96 95 97 95 94 94 94 88 90 88 94
78 83 87 94 90 92 91 93 94 89 91 93 92 93 94 93 90 90 95 97 97 97 95 98 98 98 96 96 96 94 95 96 97 97 96 96 97 98 96 92 94 90 97
85 90 94 95 95 93 93 90 85 86 85 88 88 89 89 88 84 85 91 96 94 96 97 97 96 97 97 95 94 95 97 95 96 93 96 97 97 98 98 93 92 95 94
91 91 93 94 93 93 92 94 91 84 87 84 82 81 82 83 86 89 91 97 98 99 97 93 95 97 96 92 94 96 96 94 93 93 96 97 97 98 98 97 96 95 89
91 92 92 92 91 90 91 89 89 89 89 92 88 83 81 86 86 88 89 94 99 99 97 95 96 95 94 92 94 96 96 97 94 96 97 98 99 99 98 98 97 100 96
93 96 96 92 91 91 92 97 95 91 97 98 94 96 96 90 90 90 91 98 97 96 96 95 94 94 94 94 94 96 95 94 94 97 98 98 99 99 98 97 99 98 98
89 92 95 92 92 91 85 91 91 91 91 93 97 87 90 100 96 96 96 96 98 97 94 95 96 93 94 94 94 94 96 94 94 97 97 98 100 99 97 97 98 99 98
82 83 84 84 85 84 86 88 88 84 90 96 95 92 95 97 95 97 97 97 95 97 96 95 96 96 93 95 94 96 96 96 92 93 96 98 100 98 97 98 99 98 98
93 92 90 90 91 93 95 94 91 92 86 85 88 96 96 99 97 96 97 97 97 96 96 97 96 96 94 93 94 94 94 93 93 93 95 96 96 96 97 98 100 99 97
89 93 92 88 89 89 92 89 93 93 92 96 98 98 98 97 98 98 98 98 98 97 98 98 98 98 96 92 96 95 92 90 88 90 93 95 96 96 98 100 98 99 97
92 95 89 91 92 93 93 93 92 89 91 95 95 95 96 96 96 96 95 96 96 94 93 95 97 98 98 96 95 94 91 89 89 94 92 93 94 96 99 98 98 98 99
96 96 94 95 95 94 93 91 92 92 93 94 94 95 94 95 95 95 96 96 93 91 89 90 91 93 90 96 98 98 95 94 96 96 96 94 92 94 94 96 98 97 98
95 94 93 95 95 94 93 94 93 93 93 93 93 94 95 94 94 94 93 92 92 92 92 92 91 91 91 90 89 87 96 96 96 96 96 95 94 94 95 94 93 98 95

GFSGL_sfc_rhum_033.txt.gz
RH
60 59 64 62 64 56 49 49 49 54 54 54 56 59 58 60 62 69 72 76 78 80 83 84 87 90 95 95 95 82 78 79 87 73 73 73 72 72 68 75 72 73 74
68 72 69 63 58 53 52 52 57 51 56 59 61 61 61 61 62 69 73 73 77 74 75 77 78 78 91 83 80 71 70 69 71 72 76 75 74 71 74 78 64 56 71
70 66 61 62 55 52 54 55 59 63 62 62 63 62 62 63 63 68 73 78 78 75 76 76 75 75 78 81 74 72 71 59 74 82 79 78 79 76 73 75 77 76 66
62 62 65 60 55 52 53 58 61 62 62 62 61 62 65 65 66 67 72 77 77 77 78 79 76 76 77 72 67 67 64 75 78 84 80 76 80 74 83 87 74 69 66
67 64 64 57 59 60 66 66 68 64 61 60 60 64 68 68 65 74 72 76 77 76 75 70 68 62 59 63 62 67 75 82 85 85 80 81 82 79 84 71 73 72 73
69 71 68 67 70 70 67 64 63 64 63 62 66 69 72 64 74 82 78 78 72 73 72 69 62 63 68 68 65 70 75 82 83 90 85 88 80 83 81 82 86 88 87
67 68 67 62 60 62 61 66 72 78 82 79 71 66 69 73 79 84 83 76 74 74 75 69 62 57 73 78 72 66 64 64 64 81 90 85 88 77 78 86 88 89 91
68 65 63 65 68 70 74 81 90 90 88 82 73 72 74 72 81 84 84 72 72 72 77 73 71 70 77 71 72 74 70 69 66 61 75 81 79 79 84 81 93 92 87
66 70 72 78 83 87 90 93 91 89 82 72 72 78 80 80 84 86 84 74 74 75 76 74 73 74 72 72 78 76 76 72 55 59 61 64 67 66 66 84 93 94 90
75 80 87 89 91 92 93 92 86 73 69 77 77 81 84 88 82 87 85 86 82 84 84 81 78 74 72 74 86 88 93 76 66 69 74 73 70 74 66 80 88 95 89
91 92 92 91 91 90 86 81 80 80 82 84 85 86 85 87 88 84 87 82 81 82 83 86 82 77 74 73 72 91 91 77 80 86 84 82 76 74 69 73 80 94 91
89 90 88 84 75 70 82 85 80 83 86 87 91 91 92 86 86 88 87 86 79 85 84 83 87 78 75 74 78 82 80 88 97 98 98 94 92 87 70 75 78 84 88
82 82 82 81 81 82 85 83 85 87 94 92 93 93 92 91 93 89 89 88 89 90 96 85 82 80 80 82 84 85 89 97 98 100 96 96 94 79 75 86 80 80 82
80 80 82 85 86 87 88 90 94 96 96 93 93 94 94 94 95 95 95 96 94 97 97 93 86 90 92 91 96 89 96 96 97 97 97 97 96 97 96 95 96 90 92
81 84 86 93 90 91 91 93 93 92 92 91 90 92 94 92 87 86 90 96 96 95 96 97 97 97 97 93 97 95 96 97 98 98 98 96 97 97 98 97 98 97 99
90 92 94 95 94 91 92 87 83 87 86 86 86 86 86 84 83 83 86 88 91 97 98 98 97 97 96 95 95 94 96 96 96 96 97 95 96 97 98 97 98 99 98
96 95 96 96 96 96 94 94 91 84 83 84 86 85 85 83 84 86 86 89 91 93 98 97 96 96 95 96 95 96 94 93 94 96 94 94 96 97 98 98 98 98 98
94 95 97 97 98 97 97 84 84 89 93 91 83 87 83 98 99 87 89 91 94 96 97 97 96 93 94 96 95 95 95 96 97 96 95 96 96 97 99 98 97 100 99
80 80 84 90 92 93 90 86 83 82 80 84 89 93 95 93 91 96 91 96 93 91 86 95 95 96 93 96 94 93 94 95 97 97 94 94 97 97 100 98 98 98 100
87 92 94 94 93 92 90 91 91 90 90 89 90 86 87 99 97 94 98 99 96 89 89 96 95 94 94 95 96 95 96 97 97 95 94 95 97 99 99 98 99 100 99
87 85 90 89 89 90 92 92 91 92 91 89 90 88 86 93 94 97 96 98 98 91 96 97 97 97 96 96 96 96 95 95 94 94 94 94 97 99 98 97 99 99 99
88 91 86 86 89 91 92 89 91 91 91 93 92 90 92 94 96 97 97 98 98 98 98 97 97 97 97 96 96 97 96 95 95 95 96 94 95 97 97 98 100 100 98
94 95 89 88 90 94 94 90 93 93 93 92 91 91 93 94 95 94 95 96 96 94 94 95 95 95 97 98 97 97 96 95 92 92 94 95 96 96 97 98 99 100 98
97 98 92 93 94 96 95 95 95 92 92 92 93 92 93 94 94 95 95 95 95 92 91 92 92 95 95 96 97 98 97 96 97 96 92 95 95 96 96 100 98 99 100
100 100 99 99 100 99 96 95 95 94 93 94 94 93 92 91 90 92 93 94 93 93 92 93 94 92 92 95 96 96 96 98 98 96 96 96 96 95 93 95 98 98 99
100 98 98 100 100 100 97 97 97 95 95 95 94 94 94 93 91 91 92 92 91 90 90 90 91 92 92 91 94 95 95 96 96 97 96 96 96 95 94 93 94 95 95

GFSGL_sfc_rhum_036.txt.gz
RH
82 83 85 86 88 84 76 70 60 59 62 66 58 61 61 61 63 70 74 78 80 82 83 87 84 88 94 96 96 93 91 95 96 79 70 64 63 61 60 63 67 66 68
86 86 87 84 79 75 65 51 57 55 62 55 64 62 60 62 66 71 74 70 79 82 80 80 85 81 94 94 93 88 76 72 68 68 66 67 67 65 66 67 59 54 63
83 82 83 71 69 56 53 53 58 61 65 65 63 62 63 66 65 69 72 73 78 81 78 81 79 79 86 86 80 77 70 59 69 74 71 71 70 67 64 66 68 67 61
80 78 72 77 59 59 62 64 66 63 64 65 63 65 66 64 67 68 68 76 81 81 81 83 82 83 82 79 75 73 65 68 71 75 76 72 69 65 72 77 66 58 60
79 74 74 69 70 74 73 70 72 67 64 63 64 72 76 78 64 72 73 79 83 84 84 84 82 77 71 69 62 67 67 72 76 78 75 70 67 72 70 68 70 70 70
81 77 77 80 77 79 75 71 68 69 76 82 84 86 89 66 73 80 82 83 82 80 78 76 68 67 72 74 75 64 67 79 81 81 75 72 71 72 76 79 82 82 76
82 80 79 76 67 71 74 74 81 88 90 90 93 88 82 73 78 82 86 87 82 80 77 72 67 56 71 70 76 77 76 71 68 79 80 75 78 75 72 80 80 83 82
74 73 72 72 79 81 85 90 93 93 95 96 89 84 77 74 82 85 88 90 83 79 76 74 72 67 71 75 78 76 68 65 66 64 69 69 74 72 76 73 82 84 77
80 82 81 85 88 90 93 95 96 96 92 88 80 77 80 81 82 84 89 93 82 76 70 73 73 72 71 73 78 75 70 68 63 63 62 68 68 67 68 78 84 88 88
92 89 88 89 90 93 95 93 91 90 86 76 78 80 80 87 82 84 88 96 88 79 75 75 79 74 76 78 88 85 87 74 70 61 62 66 69 71 70 70 73 93 91
96 94 92 91 93 93 92 91 89 88 86 88 86 86 85 85 84 82 85 96 92 87 80 76 78 81 82 76 78 88 86 75 81 74 72 79 77 74 70 65 68 81 91
90 89 87 86 82 78 87 89 88 88 89 89 92 89 91 88 84 84 86 89 92 93 87 84 85 80 92 81 80 82 80 90 94 95 96 95 92 86 71 64 69 77 79
82 83 84 83 83 86 89 89 88 89 96 92 92 93 90 91 93 84 86 89 91 96 91 87 86 91 95 95 84 82 87 94 97 100 98 93 88 76 66 78 75 73 72
84 87 89 89 90 89 90 92 95 96 96 92 93 93 90 88 93 91 91 94 94 95 96 92 92 94 95 97 93 93 93 93 93 94 94 90 86 87 86 84 89 85 88
92 93 94 95 94 95 92 94 94 93 92 90 90 91 91 90 83 84 86 91 94 93 98 95 98 98 97 95 95 96 96 96 96 95 96 94 89 87 87 87 90 90 95
92 96 98 98 98 95 97 93 84 86 87 87 88 91 88 86 84 86 85 97 96 98 98 98 97 96 96 94 95 96 95 96 92 94 96 94 92 90 88 86 90 92 94
97 94 91 91 91 92 89 88 90 76 70 73 73 74 81 85 86 88 95 98 99 99 98 98 96 95 94 95 94 95 95 92 90 91 94 94 93 90 92 89 92 91 90
84 89 93 95 96 96 97 95 94 94 94 88 76 77 78 79 80 85 91 98 98 99 93 90 88 91 93 93 95 95 95 96 95 94 96 96 95 93 93 93 93 95 91
86 92 94 98 98 97 94 88 84 90 90 88 84 81 82 82 80 83 83 98 97 96 86 90 92 94 90 93 95 97 97 96 96 97 96 94 95 92 94 93 94 97 96
84 89 94 93 91 92 90 86 84 90 90 91 91 91 86 86 89 91 94 96 96 97 98 95 90 88 94 96 96 96 96 97 96 96 96 95 95 94 95 95 97 94 91
90 90 89 89 90 88 92 94 91 93 93 91 91 90 86 92 93 94 94 94 94 93 96 97 98 98 98 96 96 97 96 96 96 94 94 94 95 95 95 95 95 90 92
90 84 84 90 88 94 95 90 93 94 92 92 92 88 88 90 91 91 92 94 95 95 95 94 94 95 96 95 97 97 96 96 96 95 94 95 94 94 95 95 96 95 94
95 92 90 86 90 96 98 92 95 96 95 93 93 93 92 93 93 92 92 93 93 94 94 94 95 93 93 94 94 96 97 96 96 95 94 95 96 96 95 95 94 98 96
96 98 95 96 99 98 100 100 99 98 95 94 96 96 94 94 94 93 92 92 91 90 94 95 94 94 94 93 93 95 95 96 98 97 96 94 94 94 95 94 94 95 95
98 100 100 100 100 100 100 99 99 100 99 97 96 95 94 94 93 92 92 90 90 89 88 91 94 94 92 92 93 94 96 96 96 97 97 96 96 95 93 92 93 93 96
99 99 100 100 100 100 100 100 99 100 100 96 96 96 96 95 93 93 91 90 89 89 88 87 91 94 93 92 92 93 93 95 96 96 97 96 96 95 95 94 94 91 93

GFSGL_sfc_rhum_039.txt.gz
RH
80 84 86 85 85 85 87 77 72 66 55 52 62 62 63 49 49 50 54 54 58 58 61 62 61 60 59 58 65 64 64 71 63 43 44 46 46 42 40 40 38 38 36
79 84 84 83 86 86 85 80 71 63 53 51 58 61 61 49 49 51 53 62 58 58 57 59 59 50 62 61 62 64 59 54 55 50 42 42 44 44 44 43 34 30 38
73 73 74 77 80 82 82 73 64 56 53 64 62 61 54 50 50 56 76 63 56 56 56 58 56 59 59 57 60 57 53 50 50 52 44 39 43 42 41 37 35 41 32
70 68 72 74 72 71 64 59 62 62 62 57 62 66 58 56 61 79 70 60 58 56 60 62 58 59 58 56 54 54 52 52 46 45 41 41 41 40 42 36 39 36 36
65 62 66 64 59 58 60 72 73 70 64 63 62 73 79 81 82 79 66 62 61 60 63 61 62 63 72 65 52 52 49 46 43 43 44 44 43 42 38 39 43 40 41
64 62 62 65 67 72 74 77 75 71 74 76 84 86 90 86 87 86 76 60 60 62 58 58 59 74 74 80 77 69 52 49 51 48 47 47 45 42 39 46 50 49 50
66 64 64 65 69 74 75 79 87 86 85 91 93 90 85 81 88 84 85 62 61 59 59 56 52 47 62 48 67 80 76 71 66 55 57 50 54 40 43 48 46 49 50
62 61 61 65 75 79 83 83 89 90 91 90 83 83 82 78 82 83 86 59 61 62 61 58 57 54 53 52 50 52 52 53 56 52 50 48 42 41 47 52 59 56 45
67 69 70 74 75 78 90 91 83 85 83 85 84 88 77 66 80 81 78 63 64 64 60 59 58 56 63 71 58 58 53 51 56 65 66 67 64 71 66 60 64 61 69
73 72 70 70 72 76 80 84 86 86 83 75 66 65 71 64 74 82 76 68 70 67 64 61 76 62 71 79 70 72 69 50 49 50 48 50 58 53 66 62 50 67 64
78 79 82 84 89 87 80 70 68 67 69 72 72 69 66 67 64 81 83 72 74 71 68 65 64 78 81 80 79 79 87 60 62 56 49 42 46 50 49 48 49 54 66
78 74 66 63 61 60 65 64 64 65 69 71 85 72 69 70 77 79 85 85 74 88 78 70 74 81 82 84 81 93 96 82 75 75 70 65 64 61 50 46 49 53 52
61 63 64 65 64 63 62 64 62 64 70 73 72 76 70 70 70 82 86 87 88 90 84 83 86 86 85 84 92 98 97 95 93 88 78 69 63 56 51 58 59 55 50
70 71 68 66 64 61 57 58 60 67 72 72 75 77 78 77 77 72 76 77 82 90 89 80 86 88 88 90 95 94 94 94 93 90 78 66 65 74 72 64 70 64 64
67 66 66 66 63 56 54 61 63 59 71 70 68 72 86 88 79 83 89 90 96 95 98 99 98 96 94 91 88 92 94 92 94 92 88 79 75 71 72 68 70 67 72
58 58 66 63 63 55 53 52 68 71 73 73 76 81 83 81 78 77 77 81 83 92 98 98 98 99 92 84 86 83 87 93 90 90 91 85 80 76 73 68 68 70 70
58 61 61 66 63 65 65 65 68 62 66 68 70 72 78 76 76 72 78 80 84 82 93 97 100 100 93 83 83 81 84 83 89 94 92 89 85 78 82 74 75 72 71
63 78 66 69 69 68 68 69 68 73 78 72 66 70 74 76 75 74 76 74 82 77 88 89 92 91 89 92 92 89 81 88 92 90 91 90 90 83 84 78 76 78 72
57 63 72 75 74 76 72 72 70 72 73 72 68 65 70 76 73 73 76 83 86 86 85 87 94 89 83 89 95 94 94 95 96 96 94 90 91 83 84 77 76 81 82
66 76 72 70 70 70 71 73 71 72 74 74 73 75 69 74 83 85 84 87 86 82 86 83 85 89 97 97 99 99 96 96 95 92 95 95 91 87 84 81 85 84 70
66 66 78 69 68 69 73 76 72 75 77 76 76 79 83 82 82 82 81 84 84 83 86 87 90 91 92 94 90 94 93 93 92 91 93 93 92 88 82 82 86 80 71
68 65 66 73 70 78 77 72 76 77 75 77 77 76 79 81 80 80 79 84 85 82 81 86 89 90 90 90 89 91 90 90 92 92 93 93 87 84 83 85 87 85 76
71 74 71 68 73 79 81 74 78 82 81 81 80 80 81 84 85 81 84 86 82 83 82 82 87 87 88 92 91 89 89 88 90 95 94 94 89 85 87 89 87 86 81
74 79 72 77 85 82 85 86 83 79 80 83 86 86 84 85 87 86 86 85 84 84 84 85 85 85 84 90 92 89 84 89 89 93 97 94 90 86 88 88 87 86 82
83 82 82 83 89 88 88 84 85 86 86 86 87 86 82 83 81 84 85 83 83 84 84 86 85 82 84 87 90 91 88 87 91 93 94 97 94 91 87 87 88 85 82
82 78 79 83 86 88 88 88 87 87 88 88 88 88 87 85 83 86 84 84 83 85 86 83 84 83 85 86 87 90 91 89 90 93 94 94 94 92 92 91 91 89 84

GFSGL_sfc_rhum_042.txt.gz
RH
60 64 77 75 75 78 77 74 70 69 68 61 54 53 63 62 60 57 52 44 51 65 50 46 46 43 42 40 41 40 40 40 51 38 29 30 38 41 36 34 35 34 29
54 60 68 75 79 85 84 79 74 73 66 59 51 59 54 46 50 57 58 48 72 62 45 44 44 36 46 45 41 43 41 39 39 42 35 33 35 35 37 39 30 23 26
56 61 66 74 82 86 87 83 80 76 68 57 56 61 54 54 55 59 72 82 79 58 49 46 43 45 46 43 42 42 38 32 37 40 38 34 32 30 33 34 33 31 23
59 59 64 67 68 70 74 76 73 70 61 69 71 68 66 57 56 69 79 83 76 68 57 50 47 46 46 46 40 42 39 40 39 39 36 34 30 30 32 32 30 26 27
58 56 64 62 58 57 59 58 58 58 57 66 62 80 70 70 77 72 71 84 78 59 53 47 51 54 64 57 38 41 41 40 39 39 37 33 32 32 33 31 29 30 32
54 54 55 53 52 55 58 60 68 68 70 79 77 85 81 60 92 90 91 87 73 53 50 46 45 62 68 81 82 78 60 45 45 44 39 37 36 34 34 34 34 36 38
54 53 53 54 57 62 62 64 78 70 89 86 81 61 69 73 91 93 95 68 52 49 47 45 40 33 57 51 78 83 78 74 67 50 46 41 42 38 37 34 36 38 40
52 51 53 56 60 62 64 66 76 78 80 73 71 76 70 68 90 93 87 57 50 45 43 44 47 46 45 50 51 50 49 48 55 46 46 41 40 39 37 36 44 45 40
53 54 54 56 57 59 63 68 66 64 69 70 76 83 86 82 88 84 75 53 47 47 42 43 44 45 57 76 57 56 51 53 56 67 69 70 70 62 54 47 57 54 64
55 53 53 54 56 60 66 78 84 82 78 71 60 55 60 57 69 79 73 58 58 56 52 47 66 60 69 82 62 61 63 55 56 49 48 58 67 58 70 58 47 60 56
60 64 69 70 75 67 54 48 47 46 49 58 60 56 53 56 55 78 81 66 65 66 60 54 50 73 83 83 79 64 71 63 67 84 72 46 42 39 40 45 44 45 56
62 58 46 43 38 37 42 43 42 44 52 55 69 59 57 57 67 73 82 84 79 83 75 68 66 76 81 84 81 76 78 85 90 98 87 74 54 47 41 39 39 42 42
42 43 46 46 45 44 46 49 44 47 52 56 54 59 53 56 56 72 78 80 77 81 74 80 96 97 97 85 87 87 87 84 98 98 91 83 78 57 46 48 46 45 46
48 48 46 48 45 41 34 33 34 44 51 49 50 52 52 53 57 73 68 66 68 72 75 76 82 95 96 97 96 96 94 89 91 91 86 80 93 85 64 57 58 56 59
46 44 42 42 35 31 30 37 46 47 63 61 59 59 78 81 77 75 73 72 77 76 86 90 80 83 84 89 90 95 85 84 95 94 95 92 90 85 72 64 62 61 68
37 38 50 46 44 34 32 33 73 67 66 67 70 75 75 71 73 74 72 73 73 74 86 82 89 94 88 80 97 92 78 83 81 84 96 92 91 79 78 70 64 64 65
38 42 45 50 43 43 44 45 47 52 56 58 60 64 68 70 73 72 71 72 68 66 82 85 99 100 93 80 98 93 82 81 90 84 91 92 95 91 93 79 72 70 66
47 62 45 47 47 50 49 52 52 59 66 61 54 57 62 66 71 68 69 65 65 64 66 74 81 81 79 83 83 84 76 83 90 88 94 98 99 90 94 81 70 74 65
40 44 55 60 63 60 60 59 56 59 60 59 55 51 56 65 65 62 64 71 73 69 67 68 75 79 79 84 96 98 100 100 99 100 96 95 100 93 92 76 70 69 70
54 66 61 55 56 56 57 60 56 60 61 62 61 63 59 64 76 76 76 78 77 70 72 69 71 76 82 88 92 93 98 100 99 95 99 100 100 97 93 79 80 82 70
47 54 67 56 54 55 60 64 60 64 65 64 66 71 73 75 74 73 71 76 76 74 78 76 77 79 82 85 85 90 90 92 98 91 94 93 100 96 91 83 80 73 65
53 53 55 60 58 69 65 61 66 67 65 66 69 68 67 73 71 71 70 77 80 76 74 76 78 76 76 80 84 90 91 92 93 90 97 93 93 96 93 81 82 86 71
60 66 60 57 63 66 73 66 72 75 73 74 72 72 72 77 77 73 76 80 76 77 76 76 80 78 76 80 82 87 90 89 89 89 88 94 93 95 95 84 80 83 78
66 75 63 70 78 73 79 81 78 70 73 76 80 79 77 78 81 79 80 80 78 79 78 78 78 79 77 80 82 80 83 88 86 85 90 92 93 94 96 89 81 80 77
76 79 77 75 80 81 81 78 79 80 80 80 82 81 75 77 75 79 79 78 76 78 76 80 79 77 78 80 83 81 83 90 90 89 88 91 93 99 95 89 87 80 81
71 72 72 76 77 79 81 82 81 80 81 82 82 82 82 80 77 80 78 76 75 77 80 77 78 79 82 79 77 80 86 90 92 91 90 90 93 95 95 96 96 89 85

GFSGL_sfc_rhum_045.txt.gz
RH
60 64 62 61 68 79 83 84 79 76 71 63 60 60 64 67 68 64 60 57 58 71 77 81 66 52 46 44 45 40 40 39 46 39 32 35 37 37 33 37 37 36 37
65 67 66 66 64 83 85 84 82 78 69 61 63 64 69 65 67 64 61 55 59 82 84 76 64 44 53 53 50 48 44 42 43 48 40 37 40 39 41 38 31 26 31
43 59 72 81 84 89 87 86 81 79 72 67 67 67 66 65 62 68 68 85 88 78 79 75 63 56 56 53 52 49 41 34 42 44 41 38 37 36 35 36 37 35 26
48 50 59 73 76 78 81 82 82 79 77 73 69 74 66 72 67 72 82 83 69 66 80 74 66 60 58 55 49 49 41 46 45 43 42 41 36 35 33 34 37 35 29
52 53 66 64 63 68 71 71 71 70 68 68 70 65 73 81 78 84 70 57 72 76 82 70 59 60 68 66 49 53 48 44 43 43 44 41 39 37 36 33 34 34 33
53 56 55 54 52 55 55 59 60 60 61 64 77 81 83 67 83 87 82 72 80 81 84 64 48 53 58 73 74 78 71 58 53 49 46 44 44 39 37 39 41 38 37
50 50 51 52 53 55 51 53 56 62 62 74 74 67 68 59 89 91 94 81 84 80 64 49 41 31 47 37 61 79 80 82 79 60 59 52 50 44 41 44 43 39 38
48 50 51 53 55 53 55 57 62 65 66 67 63 58 61 70 91 91 93 81 64 53 48 43 43 43 44 49 49 52 55 57 61 53 53 51 52 48 45 42 44 41 42
48 50 50 52 53 54 58 64 64 65 65 71 78 73 74 66 85 92 86 56 52 51 43 42 42 45 56 67 56 62 57 56 57 72 70 70 67 63 57 50 56 54 70
49 48 48 50 52 58 66 69 70 70 64 56 53 50 59 48 74 86 72 60 64 62 54 49 61 57 65 70 64 63 68 60 58 56 64 66 67 62 74 57 50 64 63
49 54 57 58 62 59 53 45 42 40 42 52 53 51 47 50 51 81 80 68 78 82 75 71 66 74 82 86 87 75 71 64 67 70 72 82 77 58 57 61 54 58 67
57 57 48 38 31 32 37 38 36 40 49 54 59 56 55 54 71 73 79 78 74 72 71 71 71 77 81 81 85 94 98 89 83 84 95 93 90 77 66 53 56 57 53
42 37 36 35 34 34 37 41 36 38 44 49 47 53 47 49 48 77 69 70 66 69 67 70 73 73 75 85 89 95 98 96 98 96 96 85 75 68 65 75 85 54 46
40 40 38 38 37 32 27 26 30 44 48 46 48 50 50 54 56 63 63 62 64 64 67 71 75 81 81 79 82 81 91 96 97 98 93 79 76 98 98 90 96 69 65
37 37 38 36 29 28 28 33 43 55 58 56 59 57 74 76 69 72 71 68 72 70 83 80 79 74 72 69 66 65 73 89 98 96 90 86 90 91 92 89 88 76 75
37 37 46 45 40 28 27 43 70 63 66 70 66 68 68 68 68 69 69 68 68 71 72 73 84 88 84 78 87 90 86 99 98 89 89 82 83 98 92 90 86 87 77
39 43 47 47 39 39 40 42 42 69 64 66 62 58 59 63 66 68 66 65 67 59 63 63 80 87 84 74 76 80 96 99 98 90 88 85 92 87 98 94 90 88 77
43 68 41 42 42 44 43 47 47 54 62 58 61 52 55 59 66 65 62 63 59 55 56 60 68 76 80 77 78 82 81 93 84 83 94 93 96 93 97 92 90 92 77
39 43 53 59 59 57 56 55 53 54 56 56 52 54 52 60 62 61 59 67 69 63 57 57 64 68 72 80 87 87 92 94 98 100 97 93 100 89 93 91 93 90 77
52 62 59 52 54 53 54 56 52 56 57 58 58 59 57 63 75 73 72 74 73 66 67 65 65 72 82 83 88 90 88 92 93 94 100 100 100 95 95 97 95 92 74
50 56 64 54 52 52 56 60 56 60 63 62 63 67 70 70 74 69 67 71 72 70 75 74 79 83 83 83 76 86 84 88 91 94 92 95 100 88 90 96 95 91 79
53 52 54 58 55 66 64 58 62 64 63 63 65 65 62 71 68 68 66 72 76 73 72 73 78 78 78 80 83 88 86 89 90 92 93 92 91 92 85 96 95 94 76
60 63 57 53 62 63 70 64 68 72 70 72 69 69 70 74 74 70 73 77 74 77 77 78 83 80 76 81 83 82 86 87 87 92 94 93 90 88 94 95 94 94 83
64 72 62 64 72 73 75 78 75 68 69 73 77 76 74 74 77 76 77 79 78 78 81 83 80 77 79 84 84 80 78 82 85 86 91 93 89 86 92 95 94 94 85
72 74 73 73 76 77 78 74 76 76 77 77 78 78 71 72 71 75 77 77 76 80 76 79 82 81 79 82 82 81 83 88 86 85 90 91 90 91 92 94 95 94 86
68 67 70 73 75 77 78 79 79 78 78 78 78 78 77 74 72 76 76 76 76 76 78 80 78 78 81 80 78 83 86 86 87 86 92 90 92 92 94 95 96 95 90

GFSGL_sfc_rhum_048.txt.gz
RH
57 75 79 77 77 84 89 89 90 91 81 80 78 76 72 72 82 83 76 70 69 79 89 91 90 84 75 69 70 68 68 65 69 66 60 56 60 60 49 59 60 58 59
70 76 77 78 79 90 93 94 94 84 79 75 74 73 72 81 81 79 70 63 83 90 92 94 85 66 76 70 74 70 69 67 69 70 65 64 60 58 58 60 47 34 47
61 73 76 82 89 94 97 95 93 91 88 78 76 75 77 79 76 72 77 86 91 91 91 85 83 82 79 75 68 72 68 54 65 74 73 67 67 62 60 58 56 58 43
71 78 89 92 93 92 92 91 90 88 84 81 82 83 79 77 84 83 90 88 86 86 80 82 82 82 79 74 69 72 65 70 67 68 66 71 70 62 64 59 61 62 56
72 77 88 88 85 88 89 89 87 86 83 79 79 80 82 82 78 85 79 83 82 80 84 80 79 80 80 77 64 73 76 75 77 76 75 75 73 70 65 61 58 58 59
71 72 71 73 78 84 85 84 80 76 74 75 78 84 87 72 89 86 82 79 80 84 88 82 82 79 75 80 78 75 68 69 74 78 73 70 72 71 68 66 64 65 68
63 61 61 63 65 68 64 66 72 78 81 85 85 85 82 76 87 89 89 85 88 88 87 86 77 45 62 58 65 73 82 82 79 72 78 74 71 69 84 74 69 69 70
58 58 59 61 60 61 62 68 75 79 83 84 82 76 76 79 91 91 92 89 90 88 81 70 68 64 64 68 70 75 69 68 73 77 86 82 77 75 84 76 70 71 65
57 58 58 59 60 63 68 74 74 74 74 80 82 84 85 82 90 91 93 86 75 76 64 66 68 70 75 79 80 82 72 66 57 68 78 81 77 76 75 85 91 84 91
56 55 55 57 61 68 74 76 80 81 78 73 74 76 68 68 89 84 77 88 89 94 85 71 75 74 81 83 92 92 93 94 97 95 77 87 86 83 77 79 83 93 97
53 56 59 63 69 68 71 72 69 65 65 75 69 68 63 75 80 82 78 88 91 88 85 82 80 76 75 74 73 73 76 79 88 91 95 92 95 93 80 84 79 80 84
62 66 64 61 48 47 55 54 49 61 72 77 80 83 86 82 80 77 71 71 74 82 78 78 77 74 74 75 77 76 76 81 90 87 87 96 96 98 97 82 75 74 72
60 50 42 39 39 42 53 56 57 61 72 80 82 88 86 86 89 74 67 67 69 81 77 76 72 74 78 80 80 80 80 81 84 85 86 87 90 96 98 98 85 74 72
45 46 46 48 45 44 35 38 58 76 82 82 84 84 88 84 88 82 78 80 76 76 77 78 81 82 82 79 78 76 90 91 94 92 89 92 99 96 93 98 98 98 98
46 44 49 52 44 41 49 55 73 63 75 84 83 83 94 94 85 74 73 78 82 77 82 84 82 84 80 78 76 76 77 85 84 96 93 96 99 97 92 93 98 99 97
47 52 70 67 58 41 48 55 73 69 72 69 67 75 85 70 66 67 66 66 66 69 83 84 89 89 87 82 81 82 81 82 85 91 99 98 96 92 92 98 98 97 96
59 58 68 72 66 65 67 74 84 74 68 69 66 63 66 61 64 65 65 62 66 67 89 88 91 88 84 78 80 82 86 83 83 89 95 95 94 97 98 98 98 98 97
57 70 62 64 66 72 69 72 73 81 87 89 69 61 63 61 63 62 63 63 79 70 76 80 84 83 80 80 80 82 83 85 87 89 93 98 97 98 98 98 98 97 94
60 66 77 83 84 79 77 78 75 75 78 79 77 73 72 64 63 63 59 90 91 84 76 75 81 82 83 83 86 86 88 87 87 93 94 94 97 99 98 97 99 98 96
84 86 80 75 73 72 76 75 72 75 78 80 82 82 77 79 89 88 92 93 93 90 90 83 81 84 86 86 88 87 87 86 85 89 94 95 93 94 99 97 96 97 98
88 87 76 72 68 68 73 78 73 80 82 82 86 92 77 85 88 88 90 92 92 91 91 90 90 88 87 86 85 86 87 88 85 89 90 92 94 94 92 97 95 98 97
82 73 69 72 67 81 78 72 80 81 79 80 85 83 75 92 88 90 88 92 94 93 90 89 89 86 85 88 85 87 91 88 89 89 89 88 92 93 92 91 92 97 98
81 79 68 66 72 77 87 80 85 88 87 88 86 85 88 93 94 91 92 94 94 94 92 90 89 88 84 83 85 89 92 91 89 88 91 91 89 91 91 93 92 93 98
80 82 72 78 88 82 89 91 89 82 85 88 92 91 90 92 93 93 94 94 94 94 91 90 89 83 82 90 88 84 81 83 90 94 92 92 90 88 92 91 90 93 97
84 86 86 84 88 89 90 87 90 90 90 92 91 92 87 88 87 91 92 93 92 89 92 84 84 87 85 86 87 86 90 94 85 85 93 93 92 91 92 93 92 94 96
80 80 82 86 88 90 91 91 91 91 92 91 93 92 91 90 88 90 87 86 90 88 83 84 83 82 83 87 84 83 82 83 89 92 94 94 94 92 92 94 92 93 95

GFSGL_sfc_rhum_051.txt.gz
RH
61 61 72 80 93 94 95 96 96 96 96 96 93 85 82 82 84 84 83 82 84 90 91 88 88 88 92 89 84 80 79 79 84 77 74 65 65 65 60 79 70 71 70
69 75 80 88 93 96 97 95 96 97 94 90 85 82 79 81 85 83 82 74 82 91 93 88 84 73 86 89 89 84 84 74 78 73 78 73 67 65 66 69 56 47 59
70 80 94 96 91 95 97 98 97 94 87 84 84 83 82 85 83 79 75 86 93 92 88 89 85 86 89 87 84 82 78 66 74 76 76 79 69 74 69 67 64 66 48
75 91 97 97 97 97 97 97 96 93 90 88 85 84 86 84 80 82 89 92 90 87 87 85 88 89 88 86 88 91 83 91 90 83 84 81 80 65 70 65 71 73 64
92 96 98 97 95 94 94 94 92 89 86 88 85 86 84 85 85 90 87 89 86 84 84 84 87 87 86 90 86 91 92 89 86 84 81 88 84 75 71 68 76 74 63
94 96 91 90 90 92 93 92 90 88 85 84 86 89 90 79 96 90 84 86 80 81 90 86 85 88 89 88 87 87 90 90 89 91 83 84 79 88 83 92 88 74 78
85 85 86 86 89 90 88 84 82 89 92 94 93 91 88 86 89 88 89 90 89 89 91 90 91 75 79 78 81 82 82 80 86 90 91 87 87 85 92 92 88 77 97
74 76 73 73 74 72 74 80 90 93 92 94 93 90 90 83 91 90 91 90 93 92 93 92 87 85 83 82 88 90 86 83 80 76 90 90 88 82 87 82 84 81 88
74 74 70 69 70 76 81 87 89 91 93 92 92 93 87 84 90 93 94 94 88 89 83 82 79 82 84 76 78 78 68 65 64 76 80 85 86 84 85 91 94 96 96
70 68 66 69 74 81 84 87 90 87 82 89 88 88 90 90 87 87 87 95 89 94 84 79 80 78 79 77 76 78 84 77 71 71 77 82 80 86 91 94 92 92 96
68 71 76 78 82 84 83 86 88 88 85 87 83 86 83 84 82 77 75 84 93 93 88 86 85 75 69 67 73 85 88 83 87 85 81 79 78 76 87 90 90 97 96
76 78 76 75 70 75 86 84 74 76 83 88 90 95 92 89 78 73 70 71 72 87 84 87 90 69 69 78 84 83 82 88 92 94 94 90 84 80 86 85 92 89 88
75 78 78 68 65 60 60 72 77 82 82 85 84 92 96 94 90 73 68 68 72 88 87 76 72 75 79 87 75 72 83 84 91 91 90 86 91 88 89 98 99 99 94
64 56 59 58 61 57 58 66 72 82 84 84 84 89 93 92 90 83 78 88 83 79 82 84 85 87 92 88 81 76 80 82 87 87 89 89 85 91 97 98 98 98 98
55 59 62 65 61 66 71 66 70 77 80 84 90 87 94 96 81 72 71 79 91 80 90 95 93 92 82 83 80 79 81 81 84 86 87 86 87 97 98 99 97 96 97
60 64 77 75 64 56 67 68 72 69 69 68 75 83 82 74 65 64 63 64 64 69 93 97 97 97 92 84 89 86 84 85 82 86 87 86 89 91 98 97 97 97 95
74 69 75 70 70 74 72 77 86 80 72 69 67 66 69 66 64 62 62 61 63 72 95 96 97 97 94 85 86 87 89 87 85 84 87 90 90 92 97 98 99 97 96
72 80 78 80 79 80 80 84 85 88 93 90 70 67 65 63 61 60 62 62 88 80 84 94 97 95 90 86 87 90 89 88 89 87 87 91 92 94 93 98 98 98 97
81 85 86 87 88 88 86 87 84 83 83 85 88 79 76 64 58 62 70 95 97 94 87 85 96 97 95 94 98 98 98 92 93 90 88 91 92 93 92 93 98 99 98
91 94 92 93 94 94 92 90 86 85 85 86 88 90 80 83 93 95 97 97 97 97 96 95 96 96 98 98 99 99 90 90 91 89 91 90 89 94 94 94 93 97 98
94 96 96 95 94 93 93 89 83 87 88 88 93 94 84 86 93 96 95 97 98 97 98 99 98 99 99 99 94 92 92 94 93 93 92 89 90 92 93 93 93 91 90
95 95 95 95 95 95 87 85 88 89 89 90 92 90 87 97 97 97 97 98 98 98 98 98 99 98 99 93 90 96 94 95 92 90 92 92 91 89 87 93 94 92 94
96 96 94 90 88 89 94 92 93 96 95 95 93 94 96 98 98 97 97 98 99 98 99 98 100 98 94 96 97 95 93 91 91 93 94 94 93 93 92 93 91 92 92
95 95 90 92 94 90 95 97 94 93 95 97 98 98 98 98 98 98 98 99 100 100 100 100 96 95 95 93 94 91 89 91 93 95 95 94 93 92 93 92 91 92 94
96 97 97 97 97 98 97 97 97 97 98 98 99 98 97 98 97 99 99 100 98 100 96 96 98 95 90 91 90 91 93 92 89 88 92 93 94 94 94 93 92 91 93
96 95 94 95 97 97 97 98 99 98 99 99 98 98 100 99 99 100 99 100 97 98 97 98 95 91 92 90 86 88 92 91 90 90 93 94 94 93 92 93 91 92 92

GFSGL_sfc_rhum_054.txt.gz
RH
66 66 70 73 78 95 92 94 97 97 98 97 96 96 95 92 92 87 87 87 87 93 93 90 92 92 91 87 88 84 82 82 82 80 82 73 70 67 63 78 80 81 81
64 64 75 78 91 95 98 98 97 97 96 96 95 95 92 90 89 87 85 85 89 91 91 91 93 86 86 86 89 93 94 92 92 89 88 84 79 74 71 72 59 60 68
70 76 82 89 92 96 97 96 97 97 98 98 96 94 89 88 86 85 82 84 90 89 90 90 89 87 86 88 93 96 94 84 85 86 86 88 90 84 76 77 68 68 56
72 84 88 94 92 91 90 96 98 97 96 96 94 90 89 89 86 80 85 90 90 88 90 89 87 87 90 92 93 95 94 97 95 95 91 90 94 89 87 80 79 84 70
78 79 95 95 94 95 91 97 97 96 94 91 91 92 90 87 84 87 84 89 90 92 90 84 86 87 90 91 93 96 97 98 97 96 95 92 93 93 90 86 87 75 80
84 92 96 98 97 98 97 96 95 93 93 89 91 91 92 86 96 92 88 91 89 86 86 86 89 88 90 90 83 83 86 93 94 97 94 94 88 92 93 87 87 94 84
96 96 96 95 96 97 95 93 94 94 95 95 94 91 90 89 96 93 91 86 87 90 93 90 87 74 84 86 87 86 87 85 88 94 95 93 93 92 94 98 98 95 90
94 93 93 94 95 92 88 88 89 91 90 91 91 87 88 90 92 91 92 93 95 94 94 90 90 86 91 84 84 81 73 72 68 62 78 84 88 86 90 85 87 92 94
89 89 87 85 87 88 88 89 88 93 94 94 92 93 92 93 92 93 94 95 93 92 82 82 83 84 74 71 80 80 79 80 67 70 72 75 74 76 82 86 86 87 91
84 82 80 83 85 88 91 93 94 91 91 92 94 93 94 94 98 94 93 95 88 89 81 76 73 77 72 67 81 90 94 91 91 88 82 87 83 84 81 82 87 94 92
74 75 79 82 85 86 89 88 89 92 94 96 95 90 88 88 84 78 74 81 88 87 80 80 81 70 65 71 79 93 88 80 88 93 90 86 85 85 84 81 82 92 95
81 85 85 85 80 82 89 95 93 92 92 95 96 97 92 86 79 74 73 74 71 80 78 82 81 69 74 78 81 67 68 85 87 89 86 84 86 85 82 83 84 89 92
82 85 85 83 86 89 92 92 86 85 91 94 92 95 94 88 85 69 68 69 71 83 83 74 71 74 79 84 68 65 85 90 91 91 86 82 80 83 83 83 90 91 97
86 86 82 80 75 75 74 81 84 90 90 92 92 94 93 90 89 85 78 84 80 77 81 84 87 89 92 86 82 78 83 86 87 90 88 80 79 83 86 82 97 96 98
68 67 72 75 74 71 69 75 80 85 83 84 90 90 94 94 80 70 72 79 86 84 93 96 96 84 80 82 86 82 81 82 85 87 89 87 85 85 85 82 91 98 98
68 72 77 78 73 58 60 73 77 78 80 82 82 86 87 77 70 63 61 61 63 67 89 93 94 95 94 86 91 89 88 88 85 87 88 86 89 89 86 82 83 97 97
71 71 75 74 74 73 74 78 87 82 74 75 80 81 81 73 67 60 61 59 61 71 91 90 95 97 96 84 88 89 91 89 87 88 92 88 90 88 88 87 91 91 98
77 80 79 81 83 86 86 89 90 92 95 94 85 72 70 76 71 64 63 66 83 77 82 88 92 92 87 84 88 90 92 93 90 93 93 92 93 90 91 88 92 94 94
82 87 90 93 93 93 93 94 95 96 96 96 93 87 92 76 61 73 74 91 92 89 82 80 92 93 91 91 98 99 100 97 95 100 96 94 93 92 92 89 92 94 92
93 96 95 94 94 95 96 96 96 96 96 96 96 94 80 79 91 94 97 96 96 90 91 90 90 92 96 98 100 100 98 99 97 98 95 100 95 95 93 91 93 94 90
95 96 96 96 95 96 96 96 95 96 96 95 95 93 86 87 91 95 94 97 96 93 97 95 97 98 99 100 97 97 99 98 97 97 94 94 95 95 90 89 92 93 92
95 95 95 96 94 95 95 95 96 96 95 95 96 94 91 96 96 95 95 96 97 97 96 97 97 99 99 94 96 100 98 100 98 95 95 94 93 92 94 93 91 93 93
95 95 95 94 94 95 96 96 96 96 96 96 96 96 96 97 97 96 96 98 97 98 98 98 100 97 97 100 100 99 96 95 94 95 95 95 92 93 94 95 93 92 93
94 95 95 95 96 96 97 97 97 95 96 96 97 96 97 98 98 98 98 99 99 100 100 100 99 99 98 99 100 97 92 94 94 94 95 94 93 92 93 93 93 93 93
96 96 96 96 96 96 96 96 97 97 98 98 99 98 99 98 98 100 100 99 100 100 98 98 99 98 96 95 95 95 96 93 93 90 93 94 94 94 94 94 94 93 92
93 93 94 94 95 96 96 97 97 98 99 99 100 100 100 100 100 100 100 100 100 99 97 99 98 94 95 94 90 93 92 92 93 92 94 94 94 93 93 94 93 94 93

GFSGL_sfc_rhum_060.txt.gz
RH
77 74 75 77 77 79 79 79 82 83 92 93 94 95 96 97 98 98 99 98 97 98 98 96 94 94 94 94 94 93 93 93 96 86 78 79 78 78 74 74 74 81 84
73 69 73 75 74 75 77 76 82 85 91 89 89 92 95 97 98 98 98 97 96 97 96 94 93 88 93 92 91 90 88 88 90 96 90 87 86 83 82 84 73 65 74
73 71 71 72 73 75 75 77 81 84 87 96 94 94 96 98 98 97 96 96 95 92 92 92 91 91 94 94 92 92 89 82 93 96 95 92 91 89 87 85 83 83 71
71 71 74 72 72 73 76 82 84 88 84 87 95 93 96 98 98 97 96 95 94 94 92 90 90 90 91 89 88 91 90 94 94 93 95 94 93 87 88 89 78 81 80
77 74 76 75 73 78 85 86 89 90 87 85 94 98 98 98 97 97 94 96 94 96 94 93 94 91 91 89 88 95 92 88 86 86 89 92 89 89 85 87 86 77 75
79 79 75 76 78 82 88 90 92 92 93 92 98 98 98 98 100 98 93 94 93 95 98 95 96 96 92 89 87 84 80 85 84 89 88 85 77 81 86 88 88 86 80
78 78 79 79 81 87 90 93 93 95 98 98 98 98 98 97 99 96 96 92 95 96 96 95 85 79 87 82 83 75 68 67 76 83 79 76 82 78 86 89 90 90 88
83 83 85 85 88 92 96 97 99 99 98 98 98 99 98 97 98 98 98 96 97 96 94 86 86 84 81 74 64 60 65 68 71 70 78 79 82 82 88 84 86 87 79
92 93 95 93 94 99 98 99 99 99 99 99 98 98 98 98 98 98 94 93 92 88 84 83 80 75 72 68 61 67 76 78 69 65 66 70 73 74 72 84 83 83 84
96 97 98 98 98 98 99 98 98 98 98 96 98 98 99 98 98 95 90 88 88 83 73 74 78 69 69 75 84 84 80 79 71 65 70 75 72 74 68 77 84 94 89
96 97 98 97 98 97 97 96 95 95 95 96 97 96 96 97 96 93 88 85 84 80 72 72 71 69 74 80 80 76 77 71 69 71 69 72 71 69 69 68 71 82 90
92 95 93 92 89 89 92 94 92 92 96 97 96 95 90 88 89 87 84 81 76 75 73 79 80 74 79 76 72 71 72 75 82 81 80 75 73 72 66 67 70 74 75
89 91 92 93 93 93 94 95 96 94 95 96 93 93 89 84 80 74 71 72 73 76 80 76 75 81 76 72 70 73 79 81 84 87 83 79 76 70 66 76 78 75 74
92 91 89 91 92 92 92 92 94 96 95 92 90 88 84 78 80 79 77 76 78 79 85 84 89 86 83 84 77 75 74 76 80 83 81 79 75 75 76 74 82 80 85
87 85 87 88 86 88 90 89 91 90 88 90 88 84 90 89 80 76 79 85 90 91 95 90 85 81 80 81 79 74 76 76 79 80 82 80 80 75 77 75 74 81 88
91 91 92 90 87 84 86 92 92 90 87 85 84 87 90 86 88 86 83 83 83 88 88 89 91 90 85 81 85 83 80 79 77 78 80 78 82 82 79 74 73 82 88
87 81 81 80 79 81 84 86 91 96 96 96 96 95 93 94 91 80 73 70 68 74 89 88 92 93 91 80 83 84 84 83 80 77 81 84 85 83 86 83 82 83 86
82 86 86 88 89 92 94 96 95 94 95 96 95 92 87 81 82 83 75 82 93 92 91 93 93 92 90 87 86 81 79 85 82 80 88 92 94 90 90 88 86 93 88
87 91 93 96 97 97 97 96 96 95 95 95 95 95 96 93 93 93 93 96 95 94 93 92 93 92 91 90 94 94 94 91 90 95 93 95 96 94 92 90 90 92 92
95 96 96 96 96 96 96 96 95 96 96 96 95 95 94 94 96 96 96 97 96 94 94 93 93 93 93 93 95 96 94 94 94 94 96 98 98 99 98 96 94 94 87
95 95 95 94 94 94 95 95 95 95 95 94 95 96 95 94 96 96 95 97 96 94 95 93 94 94 94 93 86 93 94 96 94 94 95 96 100 100 94 92 93 90 86
94 94 93 94 94 94 94 93 94 94 94 94 95 95 95 95 95 95 94 96 96 94 94 93 92 88 89 91 96 100 99 100 100 97 98 98 96 93 93 93 93 93 89
94 94 93 92 92 92 94 93 94 95 95 95 95 94 95 96 96 96 97 98 97 98 98 95 98 95 94 98 98 97 100 98 95 96 96 96 93 93 94 94 92 93 91
92 92 90 93 93 94 95 96 95 94 95 96 98 98 99 100 100 100 100 100 100 100 99 100 98 96 95 98 99 98 95 96 95 94 97 96 94 93 94 92 92 92 93
92 93 94 95 95 96 95 97 97 98 100 100 100 100 99 98 98 100 100 100 100 100 99 98 99 98 97 98 97 95 96 97 96 95 95 95 95 96 95 93 93 92 92
92 92 94 94 96 96 97 99 100 100 100 100 100 100 100 100 100 100 100 100 100 100 99 99 97 94 95 93 92 97 97 97 94 93 95 93 95 95 94 94 92 92 90

GFSGL_sfc_rhum_066.txt.gz
RH
54 56 59 57 59 58 56 55 53 54 52 52 52 51 50 50 50 54 57 56 61 72 83 91 92 93 95 94 93 86 82 78 84 70 56 56 63 66 58 57 54 56 48
52 54 59 61 58 60 59 58 59 58 55 52 52 49 48 48 52 55 58 59 70 88 92 96 97 97 98 97 94 93 88 79 67 81 71 68 74 64 57 59 52 38 38
50 53 58 61 61 61 60 59 57 57 56 54 52 53 52 53 52 55 61 72 92 93 92 94 96 98 97 95 93 92 88 82 82 88 72 75 66 72 66 62 53 47 34
48 49 54 59 60 59 58 58 59 57 57 57 57 56 58 54 52 57 60 80 82 89 92 94 95 96 95 94 95 92 89 91 88 86 87 84 73 65 63 57 48 38 30
49 48 52 55 55 56 59 59 59 61 58 56 58 58 58 59 57 59 57 69 76 85 91 93 92 94 96 92 90 93 91 90 92 84 80 81 75 70 64 46 36 33 32
51 50 48 50 52 57 57 59 59 60 58 58 58 58 61 58 76 93 82 72 81 87 93 94 96 98 98 97 94 91 85 87 87 86 84 83 74 60 49 40 39 39 38
50 48 49 49 51 54 54 54 56 60 61 64 62 58 59 60 100 100 100 90 94 97 98 98 99 98 97 92 95 94 91 87 83 76 79 71 58 45 44 45 45 43 42
48 47 48 50 51 51 54 55 56 59 63 68 68 66 67 67 100 100 100 98 99 98 97 96 94 98 94 91 86 81 75 68 63 51 57 52 52 47 48 46 49 50 47
44 47 46 49 52 54 57 59 60 65 70 74 79 83 89 98 100 100 99 99 99 99 98 94 94 94 96 87 83 82 80 77 78 70 68 71 73 71 65 48 53 52 62
40 42 43 48 53 56 59 65 74 76 91 96 98 98 100 98 100 100 96 96 97 97 95 97 95 94 99 96 96 92 86 69 56 52 59 60 57 56 68 53 45 62 58
43 48 52 54 59 59 70 86 94 96 97 97 98 98 97 97 98 96 94 94 95 95 94 96 97 96 95 94 82 76 73 60 63 53 48 45 44 46 43 44 41 45 57
68 74 79 82 89 90 94 96 96 96 97 98 97 97 97 98 96 95 93 92 92 90 93 93 96 96 93 83 76 76 79 75 75 63 54 50 45 44 41 38 40 43 44
89 93 95 92 91 92 94 95 95 94 96 96 96 96 96 95 96 95 94 94 93 92 94 97 96 87 80 81 85 85 83 78 78 71 64 57 47 42 44 55 55 48 47
96 95 93 94 94 91 90 92 93 96 96 95 94 94 94 92 93 92 93 94 96 95 96 90 81 80 81 87 84 75 64 65 69 67 60 51 52 60 61 53 58 55 57
90 90 91 92 91 92 94 92 95 93 89 91 91 89 94 96 95 95 94 95 96 96 95 92 90 85 71 66 69 70 64 58 63 67 71 72 69 64 62 56 56 57 63
91 91 93 91 89 88 89 93 95 95 93 93 92 90 93 91 94 95 95 94 93 95 92 91 91 90 81 73 71 66 65 69 67 69 73 70 68 66 61 56 53 57 59
94 91 89 87 83 86 90 89 90 95 96 96 96 96 94 95 94 92 93 94 93 91 87 83 88 88 83 71 72 71 74 72 73 68 69 70 70 67 67 62 60 59 59
94 95 94 94 93 93 94 95 94 93 94 95 96 95 95 94 92 92 92 91 84 74 73 78 80 76 70 65 64 64 65 69 71 69 73 74 76 72 70 64 60 66 60
93 94 96 96 96 96 96 96 94 94 94 94 92 92 93 92 90 86 82 84 80 72 65 68 74 71 69 65 79 76 79 78 78 79 74 72 76 70 68 63 63 65 66
95 96 96 94 95 96 96 94 93 91 92 92 91 91 86 84 89 88 85 84 80 75 73 72 70 73 75 73 77 80 78 75 73 71 75 77 77 73 73 70 70 70 60
90 92 92 91 90 90 91 91 90 90 89 88 91 92 87 81 84 82 79 82 80 76 78 72 75 75 73 72 66 72 71 73 71 71 72 70 76 76 68 69 73 69 66
81 81 80 83 82 86 85 82 83 82 82 84 87 84 78 80 77 77 78 82 82 75 70 71 69 66 65 68 70 77 74 76 74 72 74 71 69 70 72 74 75 75 73
78 79 76 75 76 79 81 77 81 82 81 81 78 77 76 80 78 73 77 80 73 75 73 70 73 70 66 71 72 71 73 72 71 74 77 76 72 72 76 77 75 78 76
75 77 72 78 81 79 82 84 80 73 73 77 80 79 77 78 80 78 79 78 75 76 75 75 71 69 70 74 74 70 64 69 72 72 74 79 75 72 76 75 73 76 77
76 78 79 79 80 80 80 77 78 79 78 79 79 78 72 72 71 76 76 74 74 75 71 72 73 69 69 73 74 72 71 73 76 76 77 77 79 79 78 76 77 76 77
72 71 73 74 78 78 79 80 80 79 80 79 79 79 77 74 72 77 74 72 74 73 71 72 70 70 72 68 65 72 78 80 81 78 81 79 81 79 78 79 79 80 78

GFSGL_sfc_rhum_069.txt.gz
RH
49 55 65 64 64 62 59 57 57 61 62 60 62 61 59 58 58 57 56 56 59 61 64 66 69 74 84 90 93 94 96 98 98 93 91 81 70 62 57 58 58 59 55
45 49 56 62 60 61 60 57 56 55 56 55 53 54 52 51 53 54 56 52 56 59 60 64 74 80 84 89 98 98 95 94 95 95 92 85 71 66 68 66 52 44 50
42 46 53 57 59 60 60 59 56 55 53 52 49 51 50 52 52 53 54 55 57 58 59 62 75 86 97 97 97 96 96 96 95 94 95 88 76 79 76 68 70 67 46
40 42 49 56 56 57 57 58 59 56 56 54 52 51 53 50 49 50 50 55 57 57 61 65 77 87 90 92 96 95 96 98 96 96 97 92 89 86 80 77 74 62 51
42 41 46 52 53 54 57 58 58 59 56 54 56 56 55 54 50 55 52 55 57 60 67 72 81 80 87 89 93 96 97 98 98 96 96 94 91 87 81 72 74 65 51
45 45 44 47 49 54 57 59 60 60 58 58 58 58 61 53 68 78 71 60 61 63 72 77 77 93 96 100 100 99 95 97 97 94 92 90 88 84 86 83 66 61 52
44 44 43 45 47 52 54 55 57 62 63 64 62 60 61 61 80 83 85 65 68 76 86 82 91 96 100 98 100 99 97 96 96 90 92 95 95 89 78 69 61 57 54
39 42 42 45 46 47 51 53 57 60 65 66 65 64 63 59 82 90 99 71 69 71 74 85 96 99 99 98 96 90 91 92 87 81 90 92 91 81 66 57 57 53 52
37 41 40 42 44 47 50 55 57 58 62 64 62 65 68 64 99 100 99 94 98 99 99 99 98 99 98 90 90 95 97 98 99 97 97 96 94 87 76 61 66 55 68
28 35 36 40 42 46 51 56 58 60 62 67 86 96 100 98 100 100 100 99 99 98 98 98 97 97 97 94 95 94 95 97 94 94 85 66 59 74 66 56 47 63 63
42 37 38 39 44 45 49 53 58 74 92 97 98 98 97 98 98 98 97 98 98 98 97 97 98 98 97 96 94 93 94 94 94 77 60 59 60 53 48 50 44 48 60
74 77 81 81 79 78 79 88 90 95 97 98 98 98 98 98 97 96 95 94 92 93 96 96 97 94 94 96 96 97 95 92 91 88 69 52 44 44 43 42 41 42 43
89 90 91 90 89 90 95 97 97 98 98 98 97 97 96 96 96 95 93 94 93 93 92 94 93 92 94 95 95 95 95 89 82 74 64 59 58 48 45 53 59 55 52
90 91 90 93 93 92 91 94 96 98 98 98 97 96 96 95 96 94 94 93 92 92 94 95 96 96 96 95 93 93 87 84 90 89 77 60 55 63 66 60 64 61 63
89 90 92 92 92 93 95 96 97 97 94 95 95 92 95 96 97 94 91 93 94 95 96 94 94 92 91 91 86 80 73 62 64 70 77 78 72 67 67 63 63 62 68
92 93 96 93 92 88 88 92 94 94 93 92 90 90 95 94 95 95 96 96 96 98 93 92 94 94 91 81 80 71 70 71 70 67 72 70 70 71 68 63 60 64 68
96 95 93 93 93 89 86 84 90 94 96 96 96 96 95 96 96 95 95 96 97 94 93 94 95 95 92 85 85 78 80 73 68 71 70 70 72 70 73 71 69 68 67
96 97 93 93 93 95 95 96 95 95 95 96 96 95 95 94 94 94 95 92 91 88 83 86 89 85 74 70 71 74 78 77 79 73 72 74 77 76 75 70 66 71 65
91 93 96 96 96 95 94 95 95 94 95 95 94 94 95 94 93 92 89 92 92 90 85 80 79 77 73 74 80 80 79 80 75 78 74 78 84 74 72 68 68 70 72
93 95 94 95 95 96 96 95 94 94 94 95 94 94 93 88 94 95 95 93 88 84 82 72 72 73 78 76 76 78 74 72 70 68 73 75 77 76 78 74 75 76 66
89 91 88 88 89 90 94 94 93 93 93 92 93 94 89 82 86 87 87 88 82 78 79 71 72 72 70 70 63 71 68 71 69 69 70 72 78 76 69 69 76 77 71
78 80 80 82 80 82 82 84 86 87 88 88 88 86 81 81 76 76 77 81 79 72 69 70 69 66 66 68 69 75 71 73 72 72 74 71 69 70 71 72 75 79 75
75 77 75 75 76 78 81 79 83 82 82 83 78 75 74 78 77 74 77 80 73 76 72 71 73 70 68 72 71 70 72 71 72 74 76 75 71 72 75 75 74 82 80
70 71 66 72 76 75 79 79 75 69 72 75 77 76 75 76 78 76 78 78 74 76 75 75 70 67 68 72 73 70 64 71 72 72 73 78 76 70 75 77 74 74 77
72 74 75 74 77 77 77 74 75 75 75 77 78 77 70 69 69 75 76 73 72 74 70 70 71 66 65 70 70 68 71 79 75 76 76 75 78 80 78 75 77 76 79
69 68 70 72 75 76 76 77 77 76 77 77 77 76 74 71 71 74 72 70 72 70 67 69 67 67 68 65 62 76 75 77 78 76 79 78 81 79 78 80 78 78 76

GFSGL_sfc_rhum_072.txt.gz
RH
74 80 80 78 76 73 70 68 66 74 71 68 72 72 69 66 65 67 66 66 68 66 71 75 80 82 86 89 91 94 94 93 97 88 96 95 93 88 83 74 72 76 80
64 71 77 78 76 76 74 71 72 70 70 68 65 67 65 65 66 68 68 62 65 64 64 73 76 76 83 87 93 96 96 93 97 96 91 98 96 91 88 79 72 60 65
51 60 72 76 77 76 74 71 69 68 67 67 65 64 65 65 65 65 65 64 64 64 65 68 68 73 80 87 90 92 93 95 96 96 93 98 97 95 90 82 83 80 64
48 51 60 69 72 72 70 69 68 66 64 64 66 65 65 64 62 62 61 64 64 62 64 68 68 70 73 86 91 93 94 96 96 98 96 98 96 96 89 90 94 88 83
49 47 55 60 63 67 69 69 68 67 63 61 64 64 64 61 58 62 59 62 63 63 64 64 66 69 77 87 92 93 94 96 95 97 98 99 99 99 96 92 93 95 94
51 50 49 53 58 64 66 68 69 68 67 66 66 64 66 56 66 75 67 61 61 62 66 66 68 87 94 97 97 96 91 93 96 97 97 97 96 96 97 98 98 97 97
50 50 50 50 53 61 62 64 66 70 71 72 70 68 68 66 79 81 82 65 68 71 73 73 74 84 95 89 100 100 99 98 100 95 97 99 99 98 98 98 99 99 100
46 48 50 52 52 53 59 62 66 68 72 72 72 71 70 66 85 85 87 78 72 72 74 78 90 93 98 100 99 97 97 97 96 92 95 98 98 99 97 99 100 100 99
45 45 46 51 52 54 57 61 64 68 71 72 71 75 76 74 89 89 92 87 82 97 99 99 99 99 100 97 96 98 98 98 99 99 100 99 99 100 99 99 99 98 98
78 72 67 50 51 54 58 61 64 65 69 70 79 97 99 96 100 100 99 99 99 99 98 98 98 98 97 96 96 94 96 98 96 96 96 96 96 93 90 89 92 95 93
80 78 80 80 83 78 65 66 69 73 96 98 98 98 98 98 99 99 99 99 98 98 97 98 99 98 96 94 91 91 94 95 97 95 96 97 98 96 89 62 59 79 88
82 83 84 84 82 84 93 95 95 98 98 99 99 98 98 99 98 97 97 96 94 94 97 97 98 96 95 93 92 93 93 95 97 97 97 96 85 73 66 66 64 64 62
84 86 85 84 84 86 94 96 97 98 99 99 98 97 98 97 98 96 96 96 97 96 96 95 95 93 92 93 94 96 97 97 97 97 97 97 94 69 66 74 74 69 67
86 88 86 89 87 87 88 91 96 98 98 97 96 95 96 95 97 96 94 94 93 93 93 94 94 94 95 97 96 95 96 96 96 96 96 96 91 90 87 82 85 85 86
86 87 88 88 87 87 90 95 95 96 95 94 96 95 95 97 98 96 95 95 95 96 96 97 96 95 96 96 96 95 96 96 94 94 90 84 80 80 81 84 82 88 93
90 91 94 92 89 85 84 89 96 97 94 95 95 92 97 97 97 97 96 96 96 99 97 97 98 97 96 96 96 96 95 89 84 83 86 84 85 84 83 76 75 83 86
92 91 90 90 91 90 91 91 94 96 94 96 96 96 95 96 96 96 96 96 97 94 95 96 96 96 96 94 91 93 92 86 85 84 86 87 86 82 84 82 81 82 84
90 90 91 93 93 94 95 95 95 94 95 96 95 95 94 95 96 95 94 89 93 92 94 95 95 95 95 93 93 90 86 87 85 86 93 95 95 91 91 86 82 89 84
89 91 92 92 94 96 95 95 95 95 95 96 94 92 94 93 92 92 90 94 94 94 93 92 94 94 93 89 92 91 93 92 93 94 91 89 95 93 94 91 89 87 88
91 92 92 93 95 95 95 95 94 94 94 94 95 96 95 89 94 95 95 95 94 93 90 85 84 84 87 85 89 90 88 89 89 89 94 95 96 95 94 93 94 93 84
93 92 88 89 91 92 93 94 94 94 94 94 95 95 94 92 95 94 93 92 90 88 88 86 86 86 85 85 82 89 88 93 93 93 94 92 95 95 93 94 93 90 82
90 87 86 88 89 93 92 90 92 92 92 92 91 86 84 87 85 87 89 90 90 85 84 87 85 87 87 87 88 94 93 94 95 94 95 94 94 92 92 93 93 93 86
81 82 84 86 84 84 87 87 91 90 89 87 86 87 87 89 90 89 91 92 90 91 88 88 88 89 86 92 92 90 93 96 93 91 96 96 93 93 94 95 93 93 92
79 81 76 80 84 83 87 88 84 82 85 88 89 89 89 91 93 93 94 93 93 93 91 94 90 88 91 93 93 92 89 93 91 91 93 95 92 89 93 92 91 91 90
82 83 85 86 88 88 87 86 88 89 88 89 90 91 87 88 88 92 92 90 88 91 90 92 93 86 87 86 88 93 89 98 95 95 96 93 96 95 93 92 92 94 92
79 80 83 86 88 88 89 90 90 89 90 91 91 92 91 89 88 92 91 86 92 92 89 92 89 84 83 87 87 94 91 91 96 94 98 95 97 96 93 94 93 91 88

GFSGL_sfc_rhum_075.txt.gz
RH
88 86 81 79 79 74 74 78 74 68 67 73 76 80 79 77 72 73 72 76 78 76 77 83 83 82 85 88 89 86 89 91 91 82 86 88 93 88 82 82 79 78 76
85 86 86 81 78 79 74 72 77 78 71 74 76 74 78 78 74 72 70 63 73 73 74 79 79 80 87 85 90 88 90 89 93 90 84 90 97 94 88 89 80 70 79
80 84 87 85 79 75 77 73 72 72 79 76 74 77 74 74 73 72 71 71 69 73 75 79 78 83 86 86 90 90 89 90 92 94 88 86 94 98 99 96 90 84 76
76 78 85 86 84 77 71 77 75 77 73 77 76 75 76 74 70 68 67 70 70 72 74 74 72 71 78 81 86 88 88 93 93 96 94 93 97 98 97 96 99 94 89
61 71 79 82 81 81 80 81 79 78 76 74 75 75 73 70 68 71 68 71 72 73 72 69 70 72 79 76 78 84 89 93 93 95 96 95 99 100 99 96 97 94 99
60 59 62 73 79 82 81 81 80 79 76 75 75 75 76 70 76 83 76 70 68 71 74 72 70 81 82 85 88 88 86 93 92 94 92 95 92 95 96 99 99 99 100
62 58 58 63 71 76 78 78 78 80 79 78 76 75 74 74 85 85 87 71 74 74 74 75 77 78 90 80 95 100 99 98 99 96 97 95 98 98 98 99 99 99 100
81 78 74 73 64 67 72 74 77 78 81 79 79 77 75 72 87 88 88 77 71 71 73 75 80 80 88 93 99 99 98 98 98 98 99 100 100 99 97 98 100 100 100
83 86 87 84 85 74 74 73 72 75 77 78 77 82 84 79 92 89 91 83 81 78 97 98 97 97 99 100 98 98 98 99 98 97 98 98 98 98 98 93 99 98 98
82 81 81 83 86 91 96 94 85 82 78 80 86 96 100 93 100 100 99 94 97 100 99 99 99 99 99 97 98 96 98 98 97 97 97 96 93 95 97 98 98 98 98
77 79 80 80 82 87 92 93 96 98 97 99 99 98 98 98 99 99 100 99 98 99 99 99 99 98 97 96 93 93 95 97 97 95 95 96 97 96 94 95 97 97 97
78 78 79 80 79 82 89 93 94 96 98 98 98 98 98 98 98 97 96 96 95 96 98 98 98 96 95 95 96 96 95 96 97 97 96 96 96 96 96 94 86 80 73
82 84 84 79 80 82 88 90 93 93 96 96 95 96 97 96 95 95 94 94 93 95 94 97 97 94 93 95 96 97 97 97 97 96 96 96 96 96 95 96 96 87 78
87 88 85 86 87 85 84 87 92 94 94 93 93 95 95 95 96 96 94 94 93 93 95 95 95 96 96 96 96 95 95 95 95 95 96 96 96 96 95 90 88 82 81
85 87 89 86 86 89 93 93 94 95 88 92 95 95 94 96 98 96 94 95 95 97 96 96 96 96 94 95 96 95 95 94 94 96 95 94 93 91 88 79 77 81 86
88 89 92 90 87 84 84 89 94 94 93 93 92 89 96 97 99 99 99 97 98 97 95 96 97 96 95 95 95 95 95 95 95 94 93 89 87 84 77 74 75 82 87
94 94 92 91 91 88 85 83 91 87 88 92 95 94 94 96 96 96 93 93 94 89 93 95 96 96 96 93 94 93 94 93 85 85 87 90 89 86 85 82 82 83 84
92 95 95 95 94 93 92 92 90 90 93 95 93 94 94 94 94 92 92 86 92 92 93 94 95 95 93 91 89 90 88 89 88 89 90 89 91 88 90 88 86 94 87
91 94 95 96 95 95 95 93 93 94 93 94 91 90 93 91 91 92 91 94 94 94 93 92 94 94 93 89 90 90 90 89 89 89 90 90 94 89 90 89 91 92 92
92 92 93 95 95 95 95 94 94 94 94 94 94 95 94 88 93 95 94 95 94 94 91 88 86 87 90 90 92 92 91 91 91 92 96 95 95 95 96 96 97 99 94
93 93 93 93 94 94 93 94 94 93 92 93 95 95 90 90 93 93 91 93 94 93 94 92 93 93 92 92 89 92 92 95 95 95 96 96 100 98 96 98 98 96 88
94 94 92 93 92 94 94 92 92 92 92 92 92 90 91 93 93 93 94 96 96 93 93 94 92 91 94 96 94 96 98 98 97 98 98 98 98 98 98 98 99 100 97
84 84 85 88 86 85 88 88 92 92 93 95 95 94 94 97 96 95 96 97 95 96 95 94 96 92 93 92 93 98 97 100 100 100 100 100 99 98 100 100 99 98 99
87 90 86 88 90 90 93 95 93 92 93 95 96 96 96 97 98 100 98 99 95 97 99 98 96 93 91 96 98 99 97 99 99 99 100 100 100 99 100 96 96 99 99
91 92 93 94 95 96 95 95 95 96 96 97 96 97 95 95 96 98 97 95 93 97 97 96 96 96 93 99 96 94 96 98 97 97 99 99 100 100 100 99 99 96 98
88 90 93 93 94 95 96 95 96 97 98 96 96 97 97 95 98 96 98 96 96 96 97 98 94 95 98 97 93 96 98 100 99 96 100 100 100 100 100 100 98 99 97

GFSGL_sfc_rhum_078.txt.gz
RH
81 83 82 82 81 77 80 77 71 70 78 81 80 85 82 84 84 85 82 82 85 84 85 88 87 82 82 84 83 82 86 88 86 76 81 85 93 90 87 91 86 86 83
87 88 83 81 82 81 79 78 75 72 70 75 78 79 80 79 78 79 80 78 85 84 84 86 86 82 86 83 84 85 86 84 87 86 78 85 95 90 90 93 88 85 86
86 89 91 89 83 81 78 79 78 75 74 71 74 78 77 80 80 80 78 77 76 78 77 81 80 83 84 85 85 85 87 87 91 92 86 82 84 95 97 96 92 91 84
87 88 90 90 86 84 79 79 78 78 78 78 75 74 76 73 78 78 78 79 77 73 74 75 75 77 81 81 84 86 85 88 90 93 90 88 86 90 95 91 96 97 94
85 86 87 86 84 81 80 79 78 77 75 75 82 81 79 78 75 78 77 78 78 76 74 74 77 77 80 79 77 82 86 88 88 87 88 86 87 100 98 92 98 94 99
80 88 87 88 87 87 84 80 78 81 79 78 76 80 86 80 86 90 84 79 76 76 78 75 74 87 86 87 88 83 77 86 88 89 85 87 85 87 94 94 94 100 99
86 81 82 86 88 89 88 86 85 85 86 86 84 82 82 80 91 91 91 78 79 80 79 79 79 77 86 80 89 91 94 98 98 81 83 85 86 84 90 100 99 99 100
84 85 85 84 87 89 87 89 90 88 90 89 87 85 83 79 92 93 92 82 77 76 76 77 79 78 79 84 84 95 98 99 99 99 99 98 100 100 98 99 100 100 100
80 81 83 84 86 90 95 96 92 88 89 89 87 88 86 83 99 97 95 85 82 82 78 78 84 83 85 96 93 100 99 99 98 97 98 98 98 97 97 96 99 96 98
78 77 77 79 83 90 94 96 96 97 97 93 97 96 96 96 96 97 99 95 91 91 99 99 99 100 100 100 95 99 98 98 98 96 96 96 95 96 95 97 99 98 98
76 75 75 76 78 82 87 89 93 97 97 98 97 96 94 95 95 95 96 99 99 100 99 99 99 98 97 96 95 96 97 96 97 95 95 95 96 97 96 97 97 96 97
80 80 81 82 77 78 86 88 90 94 96 97 96 96 94 92 93 93 94 96 94 95 97 98 98 95 94 94 94 96 95 94 95 96 96 96 96 96 96 94 95 94 94
84 86 84 84 85 84 91 93 91 91 94 95 94 95 96 94 94 93 91 92 93 94 95 96 95 94 94 94 94 95 96 96 97 96 96 96 97 96 96 94 95 95 94
85 85 84 86 87 88 86 88 93 94 93 92 92 95 95 95 96 96 96 92 92 94 93 94 95 95 95 96 95 95 96 96 96 96 96 96 96 95 94 92 89 84 85
83 84 86 85 85 85 90 94 92 96 95 93 95 94 94 96 98 97 93 95 96 96 94 93 94 94 95 95 95 95 94 94 94 95 95 94 94 89 82 79 80 84 91
85 87 90 87 85 83 81 88 91 93 94 93 92 90 96 94 92 94 94 94 92 86 89 93 95 95 95 95 95 95 94 94 94 93 95 91 88 86 82 78 78 82 84
92 90 88 88 88 87 88 87 92 88 85 92 92 90 92 92 91 90 90 90 92 85 92 94 94 95 95 93 94 94 95 94 93 90 89 89 87 84 87 82 82 81 82
93 93 94 95 95 94 93 94 92 93 94 94 92 92 91 90 90 91 86 78 88 87 90 93 94 94 94 93 93 93 90 89 88 87 90 92 93 90 90 87 88 97 89
88 94 95 95 94 94 93 92 92 92 93 94 90 88 92 88 88 89 87 93 94 94 93 93 94 94 92 89 93 92 92 94 94 94 92 91 98 94 96 95 96 97 95
95 94 95 95 94 94 94 93 92 93 93 93 94 95 92 86 93 95 95 95 94 93 92 91 91 93 94 93 96 96 95 95 95 92 97 97 99 97 99 98 98 97 92
96 94 93 94 94 95 94 94 93 92 93 93 95 94 88 90 94 94 94 96 96 95 96 94 96 98 98 97 96 96 96 97 98 98 98 98 100 98 96 97 96 94 91
94 92 90 92 93 93 93 91 93 92 90 92 93 91 89 93 93 93 93 95 97 96 92 92 95 96 95 97 98 100 100 100 100 99 99 99 98 98 98 99 100 100 97
92 93 91 92 91 94 94 93 95 95 96 97 94 93 92 95 96 95 97 98 97 98 97 94 96 96 97 99 100 99 99 100 100 99 100 100 100 100 100 100 100 100 100
93 95 92 94 95 96 96 96 96 95 96 97 96 97 97 98 98 98 98 99 100 100 100 100 99 96 97 100 100 100 98 99 99 100 100 100 100 99 100 100 100 100 100
94 94 96 97 97 99 98 98 97 98 98 100 98 98 98 96 98 100 100 99 99 100 99 98 99 99 100 98 97 93 97 100 100 100 100 100 100 100 100 100 100 100 100
93 95 96 96 97 97 98 100 100 100 100 100 100 100 100 100 100 100 100 99 99 98 97 99 98 99 99 100 96 99 100 100 98 98 100 100 100 100 100 100 100 100 100

GFSGL_sfc_rhum_081.txt.gz
RH
86 86 86 86 87 83 86 89 86 86 87 93 91 88 90 86 82 85 83 84 87 81 89 92 88 83 86 88 89 84 86 87 90 76 70 84 92 87 82 87 85 86 84
85 87 87 86 84 85 87 88 86 82 86 88 87 88 86 90 89 85 85 82 92 89 88 88 86 82 86 82 84 82 83 82 87 87 75 79 92 85 84 87 85 83 83
89 92 94 90 87 86 83 82 81 80 80 84 86 85 89 90 89 91 86 84 85 85 83 86 84 85 88 85 88 87 87 85 86 89 84 75 78 95 94 95 92 92 91
93 94 96 96 94 91 84 82 84 79 76 76 78 80 80 82 86 84 84 86 85 85 85 84 84 87 87 86 88 86 84 85 85 89 89 86 84 84 93 89 90 96 93
94 93 94 95 94 94 93 91 87 84 81 77 76 74 76 77 75 81 80 82 85 85 83 82 80 80 84 81 77 81 85 88 88 87 88 87 89 88 97 86 94 89 87
94 95 94 94 93 93 92 92 93 90 87 86 82 82 81 75 86 89 84 80 82 84 84 81 79 87 85 89 90 85 75 85 91 89 85 87 83 82 81 88 91 92 98
85 84 83 90 94 94 92 91 91 92 91 91 87 84 84 83 94 94 93 80 81 85 86 85 84 80 88 82 91 94 93 91 86 75 82 83 84 82 84 88 94 94 94
80 81 81 83 85 87 90 92 92 90 91 91 90 89 87 83 98 98 96 88 84 84 84 84 84 82 80 83 86 87 90 88 93 94 91 90 95 98 98 98 100 100 100
77 78 79 80 84 88 92 93 92 96 96 94 91 91 93 97 96 97 98 94 90 88 84 84 91 89 90 97 90 91 99 100 98 96 96 96 95 96 98 98 100 99 99
78 76 75 76 80 84 88 91 93 96 95 92 93 93 95 94 96 95 96 98 98 96 98 97 98 97 97 98 100 98 100 99 98 97 96 94 94 95 94 96 98 97 98
78 80 82 79 79 82 85 85 89 92 93 95 95 94 93 96 95 94 96 99 99 98 98 97 98 95 94 94 94 96 97 96 97 95 95 94 94 94 94 94 96 97 96
81 83 84 83 81 83 87 87 87 90 93 94 94 94 94 94 95 94 94 94 92 93 96 97 97 97 94 93 93 96 96 96 96 96 95 96 96 96 96 96 96 96 96
81 85 84 84 84 84 90 91 91 89 92 92 92 94 94 93 93 92 90 91 92 95 95 95 94 94 94 94 93 93 94 96 96 95 96 96 96 96 97 96 96 95 93
82 83 82 86 87 86 84 88 93 93 92 92 91 94 94 94 96 95 95 94 92 93 92 94 95 93 92 92 92 94 95 95 94 95 95 96 94 94 94 94 94 93 91
84 84 84 82 84 86 91 91 90 95 93 93 95 95 94 96 98 90 91 94 95 92 89 88 90 90 90 92 92 93 93 92 93 94 94 94 93 90 86 80 80 82 86
84 87 91 90 86 83 84 90 87 87 85 86 86 88 95 92 89 88 86 84 80 80 87 92 94 94 94 94 94 94 94 92 92 90 90 86 86 86 81 76 75 80 81
92 87 91 91 92 90 91 89 94 89 83 83 83 84 87 88 88 88 88 86 84 81 91 93 94 95 95 94 94 93 94 93 87 88 90 90 88 85 86 79 80 77 77
95 94 96 97 96 96 96 96 95 95 96 95 87 87 85 85 85 83 78 78 88 86 90 93 94 94 93 92 91 90 89 90 88 86 91 93 93 90 90 89 87 93 87
93 96 97 96 96 96 95 94 94 94 95 95 92 91 92 83 85 86 84 91 93 92 90 91 93 93 92 90 94 94 94 94 93 94 94 91 97 93 96 93 92 92 90
96 95 97 96 96 94 95 94 94 94 94 95 95 97 91 87 93 95 94 94 94 93 92 91 90 91 94 94 96 96 94 95 96 96 100 100 99 98 99 98 98 99 95
98 96 96 94 95 96 95 95 95 95 95 96 98 96 93 92 95 96 95 96 96 96 96 94 95 95 94 94 90 94 93 95 95 96 97 98 100 99 97 98 99 98 94
96 95 94 96 95 96 96 94 96 96 95 96 97 94 94 95 95 95 97 98 98 94 94 93 91 92 94 93 95 98 99 100 100 98 100 100 100 100 99 100 100 100 99
96 96 94 95 94 97 97 97 97 97 98 99 97 96 95 98 98 98 99 100 99 98 98 95 97 98 98 100 99 98 97 100 99 100 100 100 100 100 100 100 100 100 100
95 96 94 96 97 97 98 100 98 98 98 99 100 99 97 99 100 100 100 100 100 100 100 100 100 99 100 100 100 100 98 100 100 100 100 100 100 99 100 100 100 100 100
96 97 96 98 98 99 99 98 100 100 100 100 100 100 99 98 98 100 100 100 99 99 99 100 100 100 100 100 98 96 100 100 100 100 100 100 100 100 100 100 100 99 100
95 97 97 98 99 100 100 100 100 100 100 100 100 100 100 100 100 100 100 100 100 100 100 100 100 99 100 99 98 98 100 100 99 99 100 100 100 100 100 100 100 100 100

GFSGL_sfc_rhum_084.txt.gz
RH
89 93 88 92 94 96 94 95 95 94 92 89 89 92 89 89 90 88 87 87 87 87 88 92 91 87 89 91 91 88 90 92 91 78 72 76 89 82 72 78 79 80 77
97 95 92 93 92 89 88 90 94 92 94 95 92 90 90 89 88 90 92 90 92 91 88 86 86 83 90 87 91 91 88 84 84 84 69 70 90 79 81 79 73 74 77
96 94 94 93 91 94 93 89 91 91 90 94 94 94 93 92 91 88 87 90 91 91 89 86 87 89 89 88 89 86 86 83 82 85 79 71 77 83 87 88 84 82 81
96 97 98 97 95 92 89 90 89 84 87 91 91 91 93 94 93 92 91 89 88 87 86 84 83 84 84 82 86 86 86 86 86 91 90 86 83 79 87 87 88 89 91
97 97 97 97 96 96 95 94 93 90 83 82 83 88 89 89 89 93 92 93 93 93 93 91 89 86 90 86 82 85 89 92 90 88 88 85 85 86 88 82 87 86 85
97 97 87 97 97 97 96 96 95 95 95 94 90 83 83 77 88 92 89 87 85 86 87 86 86 92 92 94 95 90 78 80 88 88 83 86 84 81 78 82 85 88 93
86 82 84 88 94 96 95 95 95 95 94 95 95 92 90 88 95 92 92 78 79 82 85 85 86 83 93 85 92 95 93 93 89 80 85 86 87 83 85 85 86 89 92
80 80 80 83 86 86 89 93 95 95 96 94 94 91 89 91 96 96 99 93 84 82 82 84 87 87 87 90 90 90 91 92 97 96 97 97 99 98 99 99 100 100 100
79 79 79 80 83 86 89 91 93 95 94 96 93 93 94 92 96 95 95 94 98 95 93 96 94 94 96 96 99 99 100 99 96 94 94 94 94 94 95 99 100 100 100
82 81 77 80 83 87 89 91 92 92 90 88 91 92 94 93 95 95 95 98 99 98 97 96 98 97 97 97 99 100 99 99 97 97 96 94 94 95 94 96 97 97 98
82 82 82 80 84 83 85 85 88 90 90 93 93 92 91 94 93 92 94 97 98 96 96 96 97 97 96 97 96 99 98 97 97 96 96 96 95 96 96 96 97 95 95
83 84 84 84 82 83 88 88 87 89 91 92 92 94 93 93 90 89 89 91 90 94 97 96 95 91 90 91 93 93 93 94 95 95 95 95 95 96 96 95 96 94 92
81 85 85 82 82 85 91 91 90 88 90 91 91 94 94 92 93 90 87 89 88 94 93 89 86 85 86 90 87 87 88 92 93 93 95 96 96 96 95 94 94 90 89
84 85 83 86 86 84 83 86 91 92 89 88 88 93 94 92 95 95 94 94 91 92 90 90 86 86 86 89 90 90 92 93 93 94 94 94 92 91 91 89 87 85 81
81 82 85 84 85 86 90 91 90 95 90 92 95 93 94 95 96 86 90 93 93 90 88 88 89 89 90 90 90 90 90 89 91 93 93 92 88 78 77 74 75 76 82
82 85 90 91 89 86 86 91 87 87 87 87 84 88 95 89 82 81 81 80 78 79 87 92 94 94 94 92 92 92 91 90 90 86 89 83 82 80 74 71 71 73 73
92 89 90 92 92 92 92 89 95 90 84 84 85 85 87 81 80 81 83 81 78 81 92 95 96 95 94 91 91 91 93 87 80 83 85 86 82 79 80 76 78 77 75
95 96 97 97 97 96 97 97 96 96 96 95 88 89 85 84 84 80 78 79 89 87 91 94 95 94 92 90 88 87 85 85 84 83 87 90 92 86 86 82 79 85 76
93 95 97 96 96 96 95 95 95 95 96 97 93 91 91 81 84 86 86 92 95 95 92 92 94 95 93 90 95 94 94 94 93 93 92 90 94 86 87 85 85 88 84
97 94 96 96 96 96 96 95 95 95 95 96 97 98 92 87 94 95 95 95 95 96 95 93 92 93 96 95 97 97 93 94 93 91 95 95 96 92 92 90 90 90 84
98 96 96 96 96 97 96 96 96 96 96 97 99 98 94 93 97 97 96 97 97 97 98 95 96 98 97 96 90 94 93 94 93 93 93 92 98 94 89 88 90 87 85
97 97 95 96 95 96 96 94 97 96 96 96 98 95 96 96 97 97 97 100 100 97 94 95 95 96 96 95 94 97 96 97 96 95 95 96 95 94 92 92 95 95 90
96 96 94 95 94 98 97 96 98 98 98 99 98 97 96 100 100 100 100 100 99 99 98 95 98 97 96 97 94 91 92 95 97 98 98 98 96 95 97 96 95 95 94
95 97 94 97 97 98 99 100 100 99 99 100 100 100 100 100 100 100 100 100 99 100 100 100 99 97 96 100 98 96 93 97 97 97 99 98 96 95 97 95 94 97 96
97 98 98 99 100 100 100 100 100 100 100 100 100 100 100 99 99 100 100 100 100 100 100 100 100 100 100 99 99 97 100 100 98 99 98 98 99 99 97 95 97 94 96
97 97 98 100 100 100 100 100 100 100 100 100 100 100 100 100 100 100 100 100 100 100 100 100 98 99 99 98 97 100 100 100 99 100 100 98 100 99 99 98 98 98 95

GFSGL_sfc_rhum_087.txt.gz
RH
85 78 87 85 87 82 82 83 89 94 95 96 95 95 94 92 83 83 78 86 91 86 90 94 94 92 94 96 96 93 85 84 87 80 70 77 87 82 73 70 73 73 68
79 79 83 90 89 88 83 82 84 80 80 85 92 95 95 95 93 91 83 75 86 88 88 88 85 88 92 91 92 91 90 86 89 86 66 62 67 66 68 66 58 49 55
79 79 85 88 89 90 89 88 86 80 78 78 79 82 85 91 94 92 89 83 86 86 88 91 88 89 89 81 78 79 83 81 82 86 74 60 59 60 64 64 66 64 55
78 76 84 87 84 85 84 85 86 82 77 75 76 76 78 77 77 84 87 88 88 88 88 85 82 82 79 80 87 87 87 88 87 89 87 81 72 63 70 72 72 69 70
77 75 75 77 76 77 78 78 78 78 75 75 74 74 75 75 72 78 79 85 85 84 84 79 74 76 86 82 73 74 76 81 83 82 83 81 82 80 80 74 82 78 70
85 87 85 83 80 81 81 81 82 80 75 74 73 74 77 78 92 98 90 85 83 82 80 77 76 93 93 96 95 92 83 81 88 89 84 86 82 82 79 82 84 86 91
84 84 86 90 91 92 92 90 88 89 89 90 84 80 83 86 95 97 98 78 80 83 84 83 84 83 93 83 94 99 98 98 98 91 92 91 92 92 93 92 88 88 91
81 81 81 84 86 85 88 92 95 94 96 94 96 93 91 88 95 95 96 88 86 84 90 93 93 94 95 94 95 96 95 97 97 95 98 99 99 98 98 98 100 100 100
82 82 82 83 85 87 92 93 92 91 92 92 91 91 91 92 95 96 92 89 96 94 90 92 91 91 95 95 96 99 99 99 98 95 95 94 93 93 94 99 100 100 100
84 81 79 81 83 88 90 92 89 87 88 87 90 92 93 92 94 94 93 97 96 94 94 94 95 94 94 96 98 99 99 99 99 96 95 94 94 94 91 95 94 98 96
76 78 80 78 82 82 84 84 86 88 88 91 92 92 92 93 92 90 90 90 92 93 94 95 94 90 91 91 91 95 97 96 96 95 93 92 91 92 91 92 93 92 91
79 79 79 80 78 77 81 84 83 86 88 90 90 92 92 91 88 88 88 88 86 91 95 93 92 87 87 87 88 85 85 86 90 92 92 93 92 91 90 89 91 88 86
78 79 79 76 75 76 82 84 84 82 86 88 88 90 90 87 89 88 87 87 85 90 90 88 85 85 85 87 85 85 84 88 89 90 91 92 89 85 83 82 82 69 64
75 75 74 76 74 72 73 78 82 85 85 82 82 86 87 87 88 88 88 87 85 85 84 86 84 83 84 85 84 85 85 86 85 86 86 80 74 73 72 66 66 70 62
76 74 74 74 74 78 82 80 82 88 80 83 86 84 88 93 94 86 86 89 88 85 83 84 84 81 81 81 81 80 79 77 81 81 78 72 64 58 56 56 56 57 62
74 77 80 78 75 69 69 78 87 85 85 86 86 85 91 88 83 81 80 79 78 76 82 87 90 89 86 82 82 78 74 71 69 68 70 63 61 60 54 55 55 57 56
85 82 78 78 76 76 74 73 81 88 84 85 83 82 83 82 81 81 81 80 78 74 84 86 90 89 83 73 72 70 74 70 66 65 66 69 66 62 64 60 62 60 58
87 89 83 84 84 85 85 87 86 88 91 91 86 88 84 84 83 79 74 70 77 76 76 81 83 79 71 67 65 66 67 70 70 67 73 75 75 70 70 64 63 70 58
81 83 87 88 88 88 86 85 84 85 86 85 80 78 80 79 81 83 80 82 81 78 72 73 78 75 72 70 80 80 82 82 81 81 78 76 82 69 70 66 66 71 65
88 88 87 86 86 85 84 82 81 81 81 81 81 83 74 72 86 87 87 86 82 76 74 71 71 74 77 76 82 82 80 79 77 74 82 84 83 75 75 72 72 70 60
85 85 87 81 81 80 80 81 78 78 78 78 84 89 86 75 81 81 78 83 80 75 79 73 78 81 79 79 72 78 76 78 76 75 76 75 84 78 72 71 71 66 61
81 80 78 80 76 81 77 73 76 75 74 76 79 83 83 81 78 78 79 85 84 77 73 76 74 74 76 75 76 81 80 82 81 79 79 78 76 74 74 72 74 75 68
80 81 77 76 76 83 82 76 80 81 81 82 79 80 80 86 86 82 87 89 83 85 82 78 81 80 80 82 79 77 78 80 80 82 82 81 76 77 79 78 75 76 75
79 83 77 84 86 85 88 90 87 84 82 85 87 87 85 87 89 90 90 89 86 87 88 88 84 81 78 82 82 76 74 80 78 78 84 83 78 75 79 76 74 79 79
85 87 88 87 89 90 90 88 90 90 89 89 89 88 82 81 80 85 86 85 86 87 86 86 85 80 77 86 87 85 88 89 85 93 80 82 82 86 82 79 82 77 79
81 81 83 84 87 87 88 88 90 88 90 91 92 91 88 84 81 85 84 83 83 82 82 82 80 83 86 75 71 82 91 88 83 88 85 79 83 81 82 84 82 81 77

GFSGL_sfc_rhum_090.txt.gz
RH
71 68 69 71 72 78 82 90 96 96 95 93 92 88 84 85 85 83 80 78 85 80 77 74 68 66 82 83 82 80 90 80 83 63 57 53 65 65 56 69 72 66 56
73 71 73 77 70 74 75 83 94 94 93 92 93 90 90 90 89 83 76 70 85 85 62 82 75 81 88 94 96 96 94 90 92 90 71 70 75 69 67 61 49 44 50
75 69 76 78 73 73 73 71 73 82 90 91 94 94 94 93 93 91 83 76 72 68 77 81 78 84 89 87 89 87 80 69 79 81 71 60 56 54 57 58 60 60 49
75 66 74 76 80 78 76 74 72 68 70 73 79 84 89 90 91 93 88 81 79 63 74 83 81 84 84 84 85 81 86 85 82 87 86 75 66 58 59 61 60 54 59
70 68 74 78 76 78 79 78 80 79 72 66 70 72 74 78 78 87 85 89 87 76 70 62 66 82 88 83 74 80 80 80 78 75 79 76 72 68 72 66 74 71 68
63 72 67 67 64 67 73 72 76 78 75 75 74 72 71 66 93 99 85 75 76 76 80 78 75 93 90 93 95 93 84 77 83 88 88 91 90 87 79 80 82 85 91
83 85 87 88 89 92 86 80 76 75 74 77 78 77 87 80 95 95 96 82 79 83 84 84 84 86 97 88 96 99 99 99 100 98 98 97 98 98 96 94 98 99 99
82 83 84 86 88 88 90 93 93 94 94 94 94 90 88 87 96 96 96 83 80 89 89 88 89 91 92 93 90 97 96 97 96 92 97 98 99 97 97 97 100 100 100
83 85 84 85 88 89 92 92 92 92 92 93 91 90 91 92 96 96 94 95 93 94 90 92 89 91 96 95 94 98 99 99 94 91 91 93 92 91 93 95 98 99 100
87 83 82 85 86 91 91 91 88 88 88 88 91 91 91 91 94 93 92 90 95 94 94 93 95 91 92 94 95 96 98 99 98 97 97 93 96 90 87 98 90 96 95
93 86 81 80 83 82 84 85 86 88 89 91 92 91 89 90 89 88 88 87 92 92 93 95 96 91 90 91 92 94 96 95 93 92 90 89 92 92 90 93 99 93 95
90 78 74 74 73 74 79 82 82 84 88 89 90 91 89 86 86 87 87 87 84 90 95 93 92 86 86 85 89 84 84 90 98 96 93 92 91 91 90 86 90 86 79
86 79 72 70 68 70 75 78 80 78 83 83 83 88 88 86 85 85 86 86 86 92 90 89 83 81 82 87 83 85 89 100 100 92 90 90 86 83 84 80 77 62 54
84 73 73 76 73 69 66 75 78 80 80 78 79 82 84 88 91 90 91 90 88 87 85 91 86 85 81 85 87 87 86 85 84 84 82 77 68 64 61 54 55 55 53
79 78 77 70 70 74 81 80 79 88 84 83 86 86 91 93 93 86 87 90 91 87 91 90 85 82 81 80 79 76 74 72 75 75 72 64 56 50 46 46 47 49 54
75 77 82 76 72 66 69 78 85 84 83 84 87 85 88 85 82 80 79 78 75 77 83 86 87 86 82 78 77 72 67 64 60 60 64 56 54 53 48 47 46 49 48
79 75 72 72 71 71 70 70 78 85 82 84 82 82 82 80 78 77 76 75 72 74 83 83 86 84 76 64 63 62 66 64 60 59 61 64 63 57 59 54 56 54 52
83 80 79 80 80 82 81 82 82 84 87 87 82 81 81 81 78 74 68 64 73 69 70 75 76 71 61 56 56 58 60 63 64 60 67 69 72 65 65 59 56 64 54
78 80 83 85 85 83 82 82 81 81 82 81 77 74 73 72 74 74 71 77 74 68 60 61 66 64 61 59 71 72 75 74 74 75 71 68 76 64 63 60 61 62 63
83 81 80 81 81 80 79 78 77 76 76 76 76 76 64 65 79 81 81 80 75 66 64 59 60 64 68 67 74 76 71 72 70 67 74 76 77 69 67 65 66 66 53
77 78 75 75 74 74 74 72 68 69 68 68 75 81 71 65 71 73 71 77 73 68 72 64 69 71 70 70 63 71 69 72 70 69 70 69 77 73 64 64 64 59 53
69 68 68 70 68 72 66 63 66 65 63 66 68 74 67 73 69 68 71 78 77 70 65 68 66 65 67 67 69 76 72 76 75 74 73 70 68 67 67 65 66 67 61
66 69 65 63 64 68 71 64 70 72 72 74 70 70 71 78 77 72 76 80 73 76 73 70 74 69 70 73 72 70 72 73 73 76 78 76 70 70 73 71 66 68 66
67 71 63 71 77 71 77 79 77 73 70 75 78 77 76 77 80 78 79 80 76 77 77 76 72 72 69 74 75 68 66 74 72 72 76 78 73 69 73 68 66 68 71
73 75 75 75 78 78 78 75 77 77 77 78 79 78 70 71 70 77 78 76 75 77 69 72 74 68 62 72 72 72 82 80 78 85 74 74 74 76 74 72 72 71 70
69 68 70 71 74 76 77 78 78 77 77 78 78 78 77 73 71 76 74 72 72 71 67 72 68 69 72 63 65 78 80 81 80 80 81 75 76 74 73 74 71 73 69